FW4770 Weather Reports


time (UTC)temp
F
wind
direction
speed
knots
gust
knots
rain 1hr
in
rain 24hr
in
rain mn
in
humidity
%
barometer
mb
20260509195006 58 26 9.6 20.9 0.00 0.03 0.03 38 1010.2
20260509194910 59 51 7.8 20.9 0.00 0.03 0.03 41 1010.1
20260509194815 58 64 7.8 20.9 0.00 0.03 0.03 41 1010.1
20260509194720 58 5 9.6 20.9 0.00 0.03 0.03 42 1010.1
20260509194608 58 26 13.0 20.9 0.00 0.03 0.03 40 1010.3
20260509194532 58 13 13.9 20.9 0.00 0.03 0.03 40 1010.4
20260509194409 58 59 10.4 18.2 0.00 0.03 0.03 40 1010.3
20260509194314 58 49 8.7 18.2 0.00 0.03 0.03 41 1010.0
20260509194237 58 42 9.6 20.9 0.00 0.03 0.03 39 1010.0
20260509194119 58 35 11.3 20.9 0.00 0.03 0.03 40 1010.0
20260509194026 58 45 11.3 20.9 0.00 0.03 0.03 39 1010.1
20260509193929 58 24 11.3 20.9 0.00 0.03 0.03 39 1009.9
20260509193814 59 34 11.3 20.9 0.00 0.03 0.03 38 1010.1
20260509193716 59 30 11.3 20.9 0.00 0.03 0.03 38 1010.2
20260509193621 59 12 11.3 20.9 0.00 0.03 0.03 40 1010.3
20260509193525 59 19 12.2 20.9 0.00 0.03 0.03 40 1010.3
20260509193414 59 355 12.2 20.9 0.00 0.03 0.03 37 1010.1
20260509193319 59 355 12.2 20.0 0.00 0.03 0.03 38 1010.0
20260509193244 59 355 12.2 20.0 0.00 0.03 0.03 37 1010.1
20260509193144 59 27 11.3 20.0 0.00 0.03 0.03 39 1010.0
20260509193028 59 36 10.4 20.0 0.00 0.03 0.03 39 1010.0
20260509192911 59 355 11.3 20.0 0.00 0.03 0.03 40 1010.0
20260509192816 59 340 11.3 20.0 0.00 0.03 0.03 39 1009.9
20260509192720 59 348 10.4 20.0 0.00 0.03 0.03 41 1010.0
20260509192608 59 346 12.2 20.0 0.00 0.03 0.03 41 1010.1
20260509192532 58 344 13.9 20.0 0.00 0.03 0.03 40 1009.8
20260509192408 58 350 13.0 18.2 0.00 0.03 0.03 41 1009.9
20260509192313 58 51 10.4 17.4 0.00 0.03 0.03 40 1009.8
20260509192216 58 47 9.6 17.4 0.00 0.03 0.03 39 1009.8
20260509192119 58 67 8.7 17.4 0.00 0.03 0.03 38 1009.8
20260509192007 58 55 8.7 17.4 0.00 0.03 0.03 40 1010.1
20260509191911 58 9 11.3 17.4 0.00 0.03 0.03 39 1010.1
20260509191815 59 31 13.0 17.4 0.00 0.03 0.03 37 1010.0
20260509191718 59 48 12.2 20.0 0.00 0.03 0.03 38 1010.1
20260509191642 59 11 11.3 20.0 0.00 0.03 0.03 37 1009.9
20260509191547 59 19 11.3 20.0 0.00 0.03 0.03 40 1010.1
20260509191413 59 30 10.4 20.9 0.00 0.03 0.03 40 1010.0
20260509191317 59 355 7.8 20.9 0.00 0.03 0.03 40 1009.9
20260509191220 58 355 7.8 20.9 0.00 0.03 0.03 43 1010.0
20260509191124 58 349 7.8 20.9 0.00 0.03 0.03 40 1010.0
20260509191028 58 26 10.4 20.9 0.00 0.03 0.03 41 1010.1
20260509190932 58 19 11.3 20.9 0.00 0.03 0.03 41 1009.9
20260509190808 58 14 11.3 20.9 0.00 0.03 0.03 40 1010.1
20260509190717 58 329 12.2 20.9 0.00 0.03 0.03 37 1010.1
20260509190620 58 51 12.2 20.9 0.00 0.03 0.03 37 1010.2
20260509190542 59 36 10.4 15.6 0.00 0.03 0.03 42 1010.1
20260509190407 59 22 8.7 15.6 0.00 0.03 0.03 43 1010.0
20260509190331 58 60 7.8 15.6 0.00 0.03 0.03 42 1009.9
20260509190215 58 348 7.8 15.6 0.00 0.03 0.03 41 1009.7
20260509190118 58 63 7.8 15.6 0.00 0.03 0.03 42 1009.7
20260509190046 58 37 7.0 15.6 0.00 0.03 0.03 39 1009.7
20260509185930 58 41 7.8 15.6 0.00 0.03 0.03 40 1009.9
20260509185806 58 360 9.6 15.6 0.00 0.03 0.03 39 1009.9
20260509185711 58 43 10.4 15.6 0.00 0.03 0.03 40 1010.0
20260509185614 58 42 9.6 15.6 0.00 0.03 0.03 41 1010.1
20260509185519 58 360 7.8 15.6 0.00 0.03 0.03 44 1010.0
20260509185442 58 12 6.1 14.8 0.00 0.03 0.03 42 1009.7
20260509185328 58 342 7.0 15.6 0.00 0.03 0.03 42 1009.7
20260509185212 58 304 7.0 15.6 0.00 0.03 0.03 44 1009.6
20260509185115 58 321 7.0 20.0 0.00 0.03 0.03 45 1009.6
20260509185019 58 355 5.2 20.9 0.00 0.03 0.03 43 1009.7
20260509184925 58 34 5.2 20.9 0.00 0.03 0.03 46 1009.8
20260509184826 58 336 7.8 20.9 0.00 0.03 0.03 44 1009.8
20260509184730 58 24 10.4 20.9 0.00 0.03 0.03 42 1009.8
20260509184616 58 28 10.4 20.9 0.00 0.03 0.03 41 1009.8
20260509184521 58 24 12.2 20.9 0.00 0.03 0.03 41 1010.0
20260509184424 58 22 13.9 20.9 0.00 0.03 0.03 41 1009.9
20260509184308 58 25 13.0 20.9 0.00 0.03 0.03 41 1009.9
20260509184234 58 350 12.2 20.9 0.00 0.03 0.03 43 1009.9
20260509184109 58 316 10.4 14.8 0.00 0.03 0.03 41 1009.4
20260509184017 58 334 10.4 14.8 0.00 0.03 0.03 42 1009.3
20260509183921 58 345 9.6 16.5 0.00 0.03 0.03 43 1009.4
20260509183846 58 355 9.6 16.5 0.00 0.03 0.03 42 1009.5
20260509183708 58 342 8.7 16.5 0.00 0.03 0.03 42 1009.5
20260509183612 58 315 8.7 16.5 0.00 0.03 0.03 43 1009.5
20260509183517 58 9 8.7 16.5 0.00 0.03 0.03 42 1009.5
20260509183442 58 22 8.7 16.5 0.00 0.03 0.03 43 1009.4
20260509183349 58 339 8.7 18.2 0.00 0.03 0.03 44 1009.5
20260509183252 58 38 9.6 18.2 0.00 0.03 0.03 44 1009.5
20260509183108 58 336 9.6 18.2 0.00 0.03 0.03 44 1009.5
20260509183033 57 360 10.4 18.2 0.00 0.03 0.03 45 1009.6
20260509182909 57 350 9.6 18.2 0.00 0.03 0.03 42 1009.4
20260509182833 57 41 9.6 18.2 0.00 0.03 0.03 41 1009.6
20260509182716 57 351 9.6 18.2 0.00 0.03 0.03 41 1009.4
20260509182640 58 344 9.6 18.2 0.00 0.03 0.03 41 1009.2
20260509182507 58 339 10.4 18.2 0.00 0.03 0.03 41 1009.2
20260509182411 58 360 9.6 18.2 0.00 0.03 0.03 41 1009.2
20260509182314 58 13 9.6 18.2 0.00 0.03 0.03 42 1009.3
20260509182239 58 360 11.3 18.2 0.00 0.03 0.03 43 1009.3
20260509182121 58 328 9.6 18.2 0.00 0.03 0.03 43 1009.3
20260509182026 58 317 7.8 18.2 0.00 0.03 0.03 46 1009.3
20260509181914 58 347 7.8 17.4 0.00 0.03 0.03 46 1009.4
20260509181839 58 330 7.8 17.4 0.00 0.03 0.03 46 1009.2
20260509181722 58 331 7.0 17.4 0.00 0.03 0.03 47 1009.3
20260509181626 58 345 7.8 17.4 0.00 0.03 0.03 44 1009.2
20260509181510 58 11 10.4 17.4 0.00 0.03 0.03 45 1009.4
20260509181414 58 335 11.3 17.4 0.00 0.03 0.03 43 1009.6
20260509181323 58 355 11.3 17.4 0.00 0.03 0.03 44 1009.4
20260509181208 58 330 10.4 16.5 0.00 0.03 0.03 44 1009.4
20260509181132 58 360 10.4 16.5 0.00 0.03 0.03 44 1009.4
20260509181010 58 360 11.3 16.5 0.00 0.03 0.03 43 1009.3
20260509180913 58 25 10.4 16.5 0.00 0.03 0.03 43 1009.2
20260509180818 58 5 10.4 15.6 0.00 0.03 0.03 44 1009.4
20260509180707 58 40 8.7 15.6 0.00 0.03 0.03 42 1009.3
20260509180631 58 25 7.8 15.6 0.00 0.03 0.03 43 1009.3
20260509180508 58 36 9.6 15.6 0.00 0.03 0.03 43 1009.4
20260509180432 58 20 9.6 15.6 0.00 0.03 0.03 43 1009.4
20260509180309 58 24 9.6 15.6 0.00 0.03 0.03 43 1009.4
20260509180213 58 5 11.3 15.6 0.00 0.03 0.03 43 1009.4
20260509180122 58 335 11.3 15.6 0.00 0.03 0.03 44 1009.4
20260509180006 58 5 8.7 15.6 0.00 0.03 0.03 46 1009.2
20260509175910 58 9 7.0 15.6 0.00 0.03 0.03 46 1009.2
20260509175814 58 355 7.0 16.5 0.00 0.03 0.03 46 1009.2
20260509175719 57 325 8.7 16.5 0.00 0.03 0.03 45 1009.3
20260509175622 57 11 8.7 16.5 0.00 0.03 0.03 45 1009.2
20260509175509 57 32 8.7 16.5 0.00 0.03 0.03 46 1009.1
20260509175413 57 350 9.6 16.5 0.00 0.03 0.03 46 1009.2
20260509175317 57 355 10.4 16.5 0.00 0.03 0.03 44 1009.2
20260509175221 57 325 10.4 16.5 0.00 0.03 0.03 44 1009.4
20260509175144 57 345 8.7 17.4 0.00 0.03 0.03 44 1009.2
20260509175028 57 348 8.7 17.4 0.00 0.03 0.03 45 1009.1
20260509174932 57 355 8.7 17.4 0.00 0.03 0.03 45 1009.2
20260509174820 57 20 8.7 17.4 0.00 0.03 0.03 45 1009.4
20260509174724 57 350 8.7 17.4 0.00 0.03 0.03 46 1009.2
20260509174628 56 29 7.8 17.4 0.00 0.03 0.03 47 1009.3
20260509174553 56 24 9.6 17.4 0.00 0.03 0.03 42 1009.3
20260509174409 57 31 10.4 17.4 0.00 0.03 0.03 42 1009.2
20260509174313 57 46 9.6 17.4 0.00 0.03 0.03 43 1009.4
20260509174217 57 60 9.6 17.4 0.00 0.03 0.03 45 1009.3
20260509174124 57 10 10.4 17.4 0.00 0.03 0.03 43 1009.2
20260509174009 57 61 10.4 19.1 0.00 0.03 0.03 44 1009.4
20260509173913 57 17 9.6 19.1 0.00 0.03 0.03 44 1009.3
20260509173817 57 54 9.6 19.1 0.00 0.03 0.03 45 1009.2
20260509173739 57 344 9.6 19.1 0.00 0.03 0.03 43 1009.4
20260509173621 57 44 10.4 19.1 0.00 0.03 0.03 42 1009.2
20260509173528 57 17 12.2 19.1 0.00 0.03 0.03 42 1009.2
20260509173432 57 13 12.2 19.1 0.00 0.03 0.03 45 1009.2
20260509173309 57 341 10.4 19.1 0.00 0.03 0.03 44 1009.0
20260509173213 57 355 9.6 19.1 0.00 0.03 0.03 45 1009.1
20260509173116 57 316 7.8 19.1 0.00 0.03 0.03 48 1009.0
20260509173019 57 304 7.8 16.5 0.00 0.03 0.03 50 1009.0
20260509172942 57 345 9.6 16.5 0.00 0.03 0.03 47 1009.2
20260509172808 56 15 8.7 16.5 0.00 0.03 0.03 48 1009.1
20260509172732 56 350 7.8 16.5 0.00 0.03 0.03 46 1009.0
20260509172607 56 336 9.6 16.5 0.00 0.03 0.03 48 1009.0
20260509172512 56 351 10.4 16.5 0.00 0.03 0.03 47 1009.1
20260509172434 56 341 9.6 16.5 0.00 0.03 0.03 50 1009.1
20260509172316 56 336 8.7 16.5 0.00 0.03 0.03 48 1009.0
20260509172221 56 355 10.4 16.5 0.00 0.03 0.03 49 1008.9
20260509172108 56 355 8.7 16.5 0.00 0.03 0.03 50 1009.2
20260509172010 56 5 7.0 14.8 0.00 0.03 0.03 48 1009.0
20260509171913 56 31 7.8 16.5 0.00 0.03 0.03 49 1009.1
20260509171816 56 41 9.6 16.5 0.00 0.03 0.03 49 1009.1
20260509171719 56 51 9.6 16.5 0.00 0.03 0.03 49 1009.0
20260509171623 56 24 8.7 16.5 0.00 0.03 0.03 50 1009.1
20260509171530 56 29 8.7 16.5 0.00 0.03 0.03 51 1009.1
20260509171432 56 41 8.7 16.5 0.00 0.03 0.03 48 1008.8
20260509171308 56 59 9.6 16.5 0.00 0.03 0.03 49 1009.0
20260509171211 56 355 10.4 16.5 0.00 0.03 0.03 48 1008.9
20260509171115 56 5 9.6 16.5 0.00 0.03 0.03 49 1008.9
20260509171017 56 38 9.6 18.2 0.00 0.03 0.03 47 1008.9
20260509170920 56 38 10.4 18.2 0.00 0.03 0.03 46 1009.0
20260509170807 56 46 10.4 18.2 0.00 0.03 0.03 48 1009.1
20260509170710 56 59 10.4 18.2 0.00 0.03 0.03 49 1008.8
20260509170614 56 29 10.4 18.2 0.00 0.03 0.03 50 1008.9
20260509170517 56 360 8.7 18.2 0.00 0.03 0.03 49 1008.8
20260509170442 56 360 8.7 18.2 0.00 0.03 0.03 48 1008.8
20260509170324 56 5 9.6 18.2 0.00 0.03 0.03 49 1008.9
20260509170212 56 336 9.6 18.2 0.00 0.03 0.03 50 1009.0
20260509170117 55 349 8.7 18.2 0.00 0.03 0.03 51 1009.1
20260509170020 55 20 7.8 17.4 0.00 0.03 0.03 50 1008.8
20260509165923 55 360 8.7 17.4 0.00 0.03 0.03 50 1008.8
20260509165808 55 5 10.4 17.4 0.00 0.03 0.03 48 1008.8
20260509165712 55 313 11.3 17.4 0.00 0.03 0.03 49 1008.9
20260509165620 55 346 10.4 17.4 0.00 0.03 0.03 49 1008.8
20260509165545 55 16 7.0 14.8 0.00 0.03 0.03 51 1008.8
20260509165408 55 5 5.2 14.8 0.00 0.03 0.03 50 1008.8
20260509165312 55 5 7.0 14.8 0.00 0.03 0.03 49 1008.8
20260509165236 55 26 8.7 14.8 0.00 0.03 0.03 49 1008.7
20260509165120 55 347 8.7 14.8 0.00 0.03 0.03 49 1008.8
20260509165044 55 314 9.6 14.8 0.00 0.03 0.03 50 1008.9
20260509164946 55 41 9.6 14.8 0.00 0.03 0.03 49 1008.9
20260509164851 55 5 9.6 15.6 0.00 0.03 0.03 48 1008.8
20260509164707 56 344 7.0 15.6 0.00 0.03 0.03 50 1008.8
20260509164612 56 10 7.0 15.6 0.00 0.03 0.03 50 1008.7
20260509164516 56 45 8.7 15.6 0.00 0.03 0.03 50 1008.8
20260509164419 56 55 8.7 15.6 0.00 0.03 0.03 49 1008.8
20260509164324 56 28 8.7 15.6 0.00 0.03 0.03 50 1008.8
20260509164232 56 350 10.4 15.6 0.00 0.03 0.03 51 1008.8
20260509164109 56 22 11.3 16.5 0.00 0.03 0.03 50 1008.7
20260509164013 56 77 11.3 16.5 0.00 0.03 0.03 49 1008.7
20260509163916 56 37 10.4 16.5 0.00 0.03 0.03 50 1008.8
20260509163821 56 45 9.6 16.5 0.00 0.03 0.03 51 1008.7
20260509163725 56 40 8.7 16.5 0.00 0.03 0.03 52 1008.8
20260509163632 56 5 7.0 16.5 0.00 0.03 0.03 51 1008.7
20260509163508 56 360 9.6 20.0 0.00 0.03 0.03 51 1008.7
20260509163413 55 338 9.6 20.0 0.00 0.03 0.03 50 1008.6
20260509163317 55 355 7.8 20.0 0.00 0.03 0.03 53 1008.7
20260509163240 55 355 7.0 20.0 0.00 0.03 0.03 53 1008.8
20260509163121 55 19 8.7 20.0 0.00 0.03 0.03 51 1008.7
20260509163045 55 346 10.4 20.0 0.00 0.03 0.03 50 1008.7
20260509162932 55 349 10.4 20.0 0.00 0.03 0.03 51 1008.7
20260509162809 55 18 11.3 20.0 0.00 0.03 0.03 49 1008.7
20260509162711 55 360 11.3 20.0 0.00 0.03 0.03 50 1008.6
20260509162614 55 36 11.3 20.0 0.00 0.03 0.03 50 1008.7
20260509162517 55 26 10.4 20.0 0.00 0.03 0.03 49 1008.6
20260509162420 55 22 10.4 20.0 0.00 0.03 0.03 51 1008.6
20260509162327 55 22 10.4 20.0 0.00 0.03 0.03 50 1008.7
20260509162230 55 15 10.4 20.0 0.00 0.03 0.03 51 1008.7
20260509162107 55 5 10.4 20.0 0.00 0.03 0.03 51 1008.7
20260509162032 55 25 11.3 20.0 0.00 0.03 0.03 51 1008.5
20260509161935 55 24 13.0 20.0 0.00 0.03 0.03 49 1008.6
20260509161839 55 344 13.9 20.0 0.00 0.03 0.03 48 1008.6
20260509161722 55 14 13.9 20.0 0.00 0.03 0.03 49 1008.6
20260509161606 55 351 13.0 20.0 0.00 0.03 0.03 49 1008.6
20260509161515 55 46 12.2 20.0 0.00 0.03 0.03 49 1008.5
20260509161438 55 24 9.6 20.0 0.00 0.03 0.03 51 1008.6
20260509161319 55 36 7.8 20.0 0.00 0.03 0.03 56 1008.5
20260509161242 55 18 7.8 20.0 0.00 0.03 0.03 53 1008.5
20260509161106 55 36 8.7 20.0 0.00 0.03 0.03 54 1008.5
20260509161033 55 22 8.7 20.0 0.00 0.03 0.03 55 1008.5
20260509160908 54 360 7.8 18.2 0.00 0.03 0.03 54 1008.4
20260509160817 54 21 8.7 18.2 0.00 0.03 0.03 53 1008.4
20260509160741 54 44 9.6 18.2 0.00 0.03 0.03 52 1008.4
20260509160625 54 355 11.3 18.2 0.00 0.03 0.03 53 1008.6
20260509160509 54 42 8.7 18.2 0.00 0.03 0.03 53 1008.6
20260509160433 54 24 9.6 18.2 0.00 0.03 0.03 55 1008.3
20260509160337 54 5 12.2 18.2 0.00 0.03 0.03 53 1008.4
20260509160239 54 348 11.3 18.2 0.00 0.03 0.03 54 1008.4
20260509160123 54 331 10.4 18.2 0.00 0.03 0.03 55 1008.4
20260509160031 54 16 10.4 18.2 0.00 0.03 0.03 54 1008.4
20260509155908 54 350 13.0 18.2 0.00 0.03 0.03 53 1008.3
20260509155831 54 360 13.0 18.2 0.00 0.03 0.03 54 1008.3
20260509155707 54 13 13.0 18.2 0.00 0.03 0.03 55 1008.4
20260509155612 54 5 12.2 18.2 0.00 0.03 0.03 56 1008.3
20260509155517 53 344 8.7 18.2 0.00 0.03 0.03 56 1008.4
20260509155425 53 9 9.6 18.2 0.00 0.03 0.03 55 1008.4
20260509155329 54 342 12.2 18.2 0.00 0.03 0.03 54 1008.4
20260509155207 54 355 10.4 18.2 0.00 0.03 0.03 56 1008.3
20260509155112 54 355 10.4 18.2 0.00 0.03 0.03 56 1008.3
20260509155036 54 344 11.3 18.2 0.00 0.03 0.03 56 1008.2
20260509154918 54 360 12.2 18.2 0.00 0.03 0.03 56 1008.2
20260509154842 54 338 12.2 16.5 0.00 0.03 0.03 56 1008.2
20260509154730 54 349 10.4 16.5 0.00 0.03 0.03 58 1008.2
20260509154607 54 344 8.7 13.9 0.00 0.03 0.03 58 1008.1
20260509154531 54 360 8.7 15.6 0.00 0.03 0.03 60 1008.1
20260509154409 54 5 7.0 15.6 0.00 0.03 0.03 61 1008.1
20260509154333 54 42 7.0 15.6 0.00 0.03 0.03 61 1008.2
20260509154217 54 32 7.0 15.6 0.00 0.03 0.03 60 1008.2
20260509154121 54 19 6.1 15.6 0.00 0.03 0.03 59 1008.1
20260509154050 54 12 7.8 16.5 0.00 0.03 0.03 59 1008.1
20260509153907 54 13 10.4 16.5 0.00 0.03 0.03 59 1008.2
20260509153831 54 360 10.4 16.5 0.00 0.03 0.03 59 1008.1
20260509153708 54 9 8.7 16.5 0.00 0.03 0.03 59 1008.1
20260509153613 54 28 8.7 16.5 0.00 0.03 0.03 59 1008.1
20260509153537 54 26 9.6 16.5 0.00 0.03 0.03 57 1008.0
20260509153421 54 333 10.4 16.5 0.00 0.03 0.03 59 1008.0
20260509153309 54 12 12.2 16.5 0.00 0.03 0.03 58 1008.2
20260509153213 54 23 11.3 16.5 0.00 0.03 0.03 58 1007.9
20260509153118 54 348 9.6 16.5 0.00 0.03 0.03 58 1007.9
20260509153042 54 11 7.8 16.5 0.00 0.03 0.03 59 1007.9
20260509152924 54 19 7.8 16.5 0.00 0.03 0.03 60 1007.9
20260509152808 54 11 8.7 16.5 0.00 0.03 0.03 59 1007.9
20260509152716 54 338 8.7 16.5 0.00 0.03 0.03 58 1007.9
20260509152620 54 325 8.7 14.8 0.00 0.03 0.03 59 1007.8
20260509152525 54 337 7.8 14.8 0.00 0.03 0.03 60 1007.9
20260509152409 55 333 7.0 14.8 0.00 0.03 0.03 61 1007.8
20260509152312 55 329 7.0 14.8 0.00 0.03 0.03 62 1007.7
20260509152216 55 330 8.7 14.8 0.00 0.03 0.03 62 1007.8
20260509152145 55 10 7.8 14.8 0.00 0.03 0.03 61 1007.7
20260509152028 55 61 8.7 14.8 0.00 0.03 0.03 62 1007.7
20260509151953 55 348 8.7 13.9 0.00 0.03 0.03 62 1007.8
20260509151809 55 360 9.6 13.9 0.00 0.03 0.03 62 1007.8
20260509151733 55 47 7.8 13.9 0.00 0.03 0.03 64 1007.8
20260509151617 54 330 6.1 13.9 0.00 0.03 0.03 64 1007.7
20260509151520 54 18 7.8 13.9 0.00 0.03 0.03 63 1007.7
20260509151428 54 347 9.6 13.9 0.00 0.03 0.03 64 1007.7
20260509151331 54 343 8.7 13.9 0.00 0.03 0.03 62 1007.7
20260509151209 54 36 8.7 13.9 0.00 0.03 0.03 62 1007.7
20260509151112 54 29 9.6 13.9 0.00 0.03 0.03 62 1007.6
20260509151016 54 66 8.7 13.9 0.00 0.03 0.03 62 1007.5
20260509150921 54 29 8.7 13.9 0.00 0.03 0.03 62 1007.6
20260509150845 54 355 9.6 13.9 0.00 0.03 0.03 61 1007.6
20260509150731 54 360 10.4 13.9 0.00 0.03 0.03 61 1007.6
20260509150609 54 331 9.6 13.9 0.00 0.03 0.03 63 1007.5
20260509150511 54 351 8.7 13.9 0.00 0.03 0.03 63 1007.5
20260509150415 54 350 7.8 13.9 0.00 0.03 0.03 62 1007.5
20260509150318 54 34 8.7 13.9 0.00 0.03 0.03 63 1007.4
20260509150222 54 10 8.7 13.9 0.00 0.03 0.03 63 1007.4
20260509150130 54 10 7.8 13.9 0.00 0.03 0.03 63 1007.4
20260509150013 54 12 7.8 13.9 0.00 0.03 0.03 64 1007.4
20260509145937 54 342 7.0 13.9 0.00 0.03 0.03 65 1007.4
20260509145839 54 329 7.8 13.9 0.00 0.03 0.03 65 1007.4
20260509145723 54 355 7.8 14.8 0.00 0.03 0.03 67 1007.4
20260509145608 53 23 7.0 14.8 0.00 0.03 0.03 68 1007.4
20260509145512 53 350 7.8 14.8 0.00 0.03 0.03 67 1007.3
20260509145420 53 10 8.7 14.8 0.00 0.03 0.03 67 1007.4
20260509145325 53 355 8.7 14.8 0.00 0.03 0.03 67 1007.4
20260509145208 53 51 8.7 14.8 0.00 0.03 0.03 66 1007.3
20260509145111 53 23 9.6 14.8 0.00 0.03 0.03 66 1007.4
20260509145014 54 36 10.4 14.8 0.00 0.03 0.03 66 1007.4
20260509144918 54 30 8.7 14.8 0.00 0.03 0.03 67 1007.4
20260509144826 54 348 7.0 13.0 0.00 0.03 0.03 68 1007.3
20260509144710 54 5 7.8 13.0 0.00 0.03 0.03 68 1007.2
20260509144614 54 355 8.7 13.0 0.00 0.03 0.03 67 1007.3
20260509144537 54 29 7.8 12.2 0.00 0.03 0.03 67 1007.3
20260509144419 54 355 7.8 12.2 0.00 0.03 0.03 70 1007.3
20260509144323 54 5 6.1 10.4 0.00 0.03 0.03 69 1007.3
20260509144211 53 360 5.2 11.3 0.00 0.03 0.03 70 1007.3
20260509144115 53 46 5.2 11.3 0.00 0.03 0.03 70 1007.2
20260509144018 53 36 6.1 11.3 0.00 0.03 0.03 70 1007.2
20260509143922 53 44 6.1 12.2 0.00 0.03 0.03 71 1007.3
20260509143826 53 26 4.3 12.2 0.00 0.03 0.03 71 1007.3
20260509143709 53 40 6.1 12.2 0.00 0.03 0.03 70 1007.3
20260509143634 53 355 7.0 12.2 0.00 0.03 0.03 69 1007.2
20260509143521 53 5 7.8 12.2 0.00 0.03 0.03 69 1007.3
20260509143426 53 53 7.0 12.2 0.00 0.03 0.03 70 1007.3
20260509143310 53 65 7.0 12.2 0.00 0.03 0.03 69 1007.3
20260509143214 53 21 7.8 13.9 0.00 0.03 0.03 70 1007.2
20260509143117 53 5 7.8 13.9 0.00 0.03 0.03 70 1007.2
20260509143021 53 346 7.8 13.9 0.00 0.03 0.03 71 1007.1
20260509142949 53 24 7.8 13.9 0.00 0.03 0.03 71 1007.1
20260509142911 53 331 7.8 13.9 0.00 0.03 0.03 71 1007.1
20260509142815 53 5 7.8 13.9 0.00 0.03 0.03 71 1007.1
20260509142529 53 360 6.1 13.9 0.00 0.03 0.03 71 1007.1
20260509142412 53 15 7.0 13.9 0.00 0.03 0.03 71 1007.1
20260509142316 53 25 6.1 13.0 0.00 0.03 0.03 72 1007.1
20260509142219 53 37 7.0 13.0 0.00 0.03 0.03 72 1007.1
20260509142127 53 360 8.7 13.0 0.00 0.03 0.03 72 1007.1
20260509142029 53 5 7.8 13.0 0.00 0.03 0.03 73 1007.1
20260509141911 53 355 7.0 13.0 0.00 0.03 0.03 73 1007.0
20260509141814 52 360 7.0 13.0 0.00 0.03 0.03 73 1007.0
20260509141717 52 345 7.8 13.0 0.00 0.03 0.03 73 1007.0
20260509141620 52 22 7.8 13.0 0.00 0.03 0.03 72 1007.0
20260509141523 52 5 7.0 12.2 0.00 0.03 0.03 73 1007.0
20260509141431 52 12 7.0 12.2 0.00 0.03 0.03 73 1006.9
20260509141306 52 360 8.7 12.2 0.00 0.03 0.03 73 1007.0
20260509141208 52 9 9.6 13.9 0.00 0.03 0.03 73 1007.0
20260509141111 52 15 8.7 13.9 0.00 0.03 0.03 73 1007.0
20260509141013 52 355 8.7 13.9 0.00 0.03 0.03 73 1007.0
20260509140937 52 351 7.8 13.9 0.00 0.03 0.03 74 1006.9
20260509140820 52 12 7.8 13.9 0.00 0.03 0.03 74 1006.9
20260509140706 52 31 7.8 13.9 0.00 0.03 0.03 74 1006.9
20260509140609 52 24 7.8 13.9 0.00 0.03 0.03 75 1007.0
20260509140533 52 319 7.8 13.9 0.00 0.03 0.03 75 1007.0
20260509140408 52 23 8.7 14.8 0.00 0.03 0.03 75 1006.9
20260509140311 51 5 8.7 14.8 0.00 0.03 0.03 77 1006.8
20260509140215 51 333 7.8 14.8 0.00 0.03 0.03 76 1006.8
20260509140142 51 5 7.0 14.8 0.00 0.03 0.03 76 1006.8
20260509140023 51 42 6.1 14.8 0.00 0.03 0.03 77 1006.9
20260509135926 51 14 6.1 14.8 0.00 0.03 0.03 77 1006.8
20260509135829 51 27 6.1 14.8 0.00 0.03 0.03 76 1006.8
20260509135710 51 360 7.8 14.8 0.00 0.03 0.03 75 1006.9
20260509135613 51 33 9.6 14.8 0.00 0.03 0.03 76 1006.9
20260509135536 51 26 7.8 13.0 0.00 0.03 0.03 77 1006.9
20260509135422 51 346 7.0 13.0 0.00 0.03 0.03 77 1006.9
20260509135326 51 9 7.8 13.0 0.00 0.03 0.03 76 1006.8
20260509135209 51 355 8.7 13.0 0.00 0.03 0.03 77 1006.9
20260509135132 51 342 7.8 13.0 0.00 0.03 0.03 77 1006.8
20260509135008 51 16 7.0 13.0 0.00 0.03 0.03 76 1006.8
20260509134931 51 348 7.0 13.0 0.00 0.03 0.03 77 1006.8
20260509134834 51 31 7.0 13.0 0.00 0.03 0.03 77 1006.8
20260509134720 51 18 6.1 13.0 0.00 0.03 0.03 79 1006.7
20260509134624 51 44 6.1 13.0 0.00 0.03 0.03 79 1006.8
20260509134526 51 346 6.1 13.9 0.00 0.03 0.03 79 1006.8
20260509134430 51 37 7.0 13.9 0.00 0.03 0.03 80 1006.8
20260509134312 51 355 7.8 13.9 0.00 0.03 0.03 79 1006.8
20260509134215 51 11 7.8 13.9 0.00 0.03 0.03 80 1006.7
20260509134117 51 344 7.0 13.9 0.00 0.03 0.03 80 1006.7
20260509134025 51 67 7.0 13.9 0.00 0.03 0.03 80 1006.7
20260509133929 51 49 8.7 13.9 0.00 0.03 0.03 80 1006.8
20260509133811 51 16 7.8 13.9 0.00 0.03 0.03 80 1006.7
20260509133713 51 355 7.0 13.9 0.00 0.03 0.03 82 1006.8
20260509133617 51 19 6.1 12.2 0.00 0.03 0.03 82 1006.8
20260509133541 51 30 5.2 12.2 0.00 0.03 0.03 82 1006.7
20260509133444 51 16 6.1 12.2 0.00 0.03 0.03 82 1006.6
20260509133330 51 42 6.1 12.2 0.00 0.03 0.03 83 1006.6
20260509133207 51 338 7.0 12.2 0.00 0.03 0.03 82 1006.5
20260509133110 50 25 7.0 12.2 0.00 0.03 0.03 83 1006.5
20260509133013 50 347 5.2 12.2 0.00 0.03 0.03 83 1006.5
20260509132916 50 5 5.2 12.2 0.00 0.03 0.03 83 1006.7
20260509132819 50 46 7.8 12.2 0.00 0.03 0.03 83 1006.6
20260509132742 50 46 7.8 12.2 0.00 0.03 0.03 84 1006.5
20260509132608 50 16 7.0 12.2 0.00 0.03 0.03 84 1006.5
20260509132509 50 19 6.1 12.2 0.00 0.03 0.03 84 1006.5
20260509132433 50 48 7.0 12.2 0.00 0.03 0.03 84 1006.5
20260509132310 50 344 6.1 12.2 0.00 0.03 0.03 85 1006.4
20260509132214 50 30 6.1 12.2 0.00 0.03 0.03 85 1006.4
20260509132139 50 13 6.1 12.2 0.00 0.03 0.03 86 1006.4
20260509132021 50 30 7.0 12.2 0.00 0.03 0.03 86 1006.4
20260509131909 50 5 6.1 12.2 0.00 0.03 0.03 86 1006.4
20260509131833 50 30 6.1 10.4 0.00 0.03 0.03 86 1006.4
20260509131709 50 24 6.1 10.4 0.00 0.03 0.03 86 1006.3
20260509131613 50 39 6.1 10.4 0.00 0.03 0.03 86 1006.3
20260509131515 50 30 6.1 10.4 0.00 0.03 0.03 87 1006.3
20260509131419 49 14 6.1 10.4 0.00 0.03 0.03 87 1006.3
20260509131326 49 5 6.1 10.4 0.00 0.03 0.03 87 1006.3
20260509131251 49 61 6.1 10.4 0.00 0.03 0.03 87 1006.2
20260509131154 49 360 6.1 9.6 0.00 0.03 0.03 87 1006.1
20260509131010 49 5 5.2 8.7 0.00 0.03 0.03 87 1006.2
20260509130915 49 44 5.2 8.7 0.00 0.03 0.03 87 1006.2
20260509130819 49 5 6.1 8.7 0.00 0.03 0.03 88 1006.2
20260509130742 49 17 5.2 8.7 0.00 0.03 0.03 88 1006.2
20260509130629 49 5 6.1 8.7 0.00 0.03 0.03 89 1006.2
20260509130507 49 349 5.2 9.6 0.00 0.03 0.03 89 1006.1
20260509130411 49 5 3.5 9.6 0.00 0.03 0.03 89 1006.1
20260509130315 49 30 2.6 10.4 0.00 0.03 0.03 89 1006.0
20260509130238 49 9 2.6 10.4 0.00 0.03 0.03 88 1006.0
20260509130122 49 52 3.5 10.4 0.00 0.03 0.03 88 1006.1
20260509130047 49 5 4.3 10.4 0.00 0.03 0.03 88 1006.0
20260509125914 49 5 5.2 10.4 0.00 0.03 0.03 88 1006.0
20260509125838 49 360 6.1 10.4 0.00 0.03 0.03 88 1006.0
20260509125741 49 350 7.0 10.4 0.00 0.03 0.03 88 1006.1
20260509125644 49 5 7.0 10.4 0.00 0.03 0.03 88 1006.1
20260509125547 49 355 7.0 10.4 0.00 0.03 0.03 88 1006.0
20260509125431 49 348 6.1 12.2 0.00 0.03 0.03 89 1006.1
20260509125315 49 15 6.1 12.2 0.00 0.03 0.03 89 1006.2
20260509125238 49 22 5.2 12.2 0.00 0.03 0.03 89 1006.1
20260509125122 49 17 4.3 12.2 0.00 0.03 0.03 89 1006.1
20260509125010 49 17 5.2 12.2 0.00 0.03 0.03 89 1006.0
20260509124913 49 5 6.1 12.2 0.00 0.03 0.03 89 1006.0
20260509124818 49 30 7.0 12.2 0.00 0.03 0.03 89 1006.0
20260509124742 49 5 7.0 12.2 0.00 0.03 0.03 89 1006.0
20260509124625 49 360 7.0 12.2 0.00 0.03 0.03 89 1006.1
20260509124528 49 360 7.8 12.2 0.00 0.03 0.03 89 1006.0
20260509124432 49 13 7.0 10.4 0.00 0.03 0.03 89 1006.0
20260509124319 49 349 6.1 10.4 0.00 0.03 0.03 89 1005.9
20260509124224 49 5 5.2 10.4 0.00 0.03 0.03 89 1005.9
20260509124129 49 16 5.2 11.3 0.00 0.03 0.03 89 1005.8
20260509124012 49 360 5.2 12.2 0.00 0.03 0.03 89 1005.8
20260509123936 49 16 6.1 12.2 0.00 0.03 0.03 89 1005.8
20260509123819 49 344 6.1 12.2 0.00 0.03 0.03 89 1005.8
20260509123723 49 5 5.2 12.2 0.00 0.03 0.03 89 1005.7
20260509123651 49 9 5.2 12.2 0.00 0.03 0.03 89 1005.7
20260509123507 49 5 5.2 12.2 0.00 0.03 0.03 89 1005.6
20260509123411 49 355 7.0 12.2 0.00 0.03 0.03 89 1005.6
20260509123316 49 11 8.7 12.2 0.00 0.03 0.03 89 1005.6
20260509123220 49 348 8.7 12.2 0.00 0.03 0.03 90 1005.7
20260509123124 49 347 6.1 12.2 0.00 0.03 0.03 90 1005.7
20260509123012 49 11 4.3 12.2 0.00 0.03 0.03 90 1005.6
20260509122916 49 335 7.0 12.2 0.00 0.03 0.03 90 1005.6
20260509122820 49 301 7.8 12.2 0.00 0.03 0.03 90 1005.5
20260509122743 49 360 7.0 12.2 0.00 0.03 0.03 90 1005.5
20260509122626 49 329 7.0 13.9 0.00 0.03 0.03 90 1005.5
20260509122531 49 360 7.0 13.9 0.00 0.03 0.03 91 1005.6
20260509122413 49 360 6.1 14.8 0.00 0.03 0.03 91 1005.6
20260509122321 49 355 4.3 14.8 0.00 0.03 0.03 91 1005.6
20260509122225 49 355 4.3 14.8 0.00 0.03 0.03 91 1005.4
20260509122130 49 348 6.1 14.8 0.00 0.03 0.03 91 1005.5
20260509122007 48 316 9.6 14.8 0.00 0.03 0.03 91 1005.4
20260509121932 48 341 8.7 14.8 0.00 0.03 0.03 91 1005.4
20260509121816 48 17 7.0 14.8 0.00 0.03 0.03 91 1005.4
20260509121723 48 348 7.8 14.8 0.00 0.03 0.03 91 1005.3
20260509121608 48 355 7.8 14.8 0.00 0.03 0.03 91 1005.3
20260509121512 48 341 6.1 11.3 0.00 0.03 0.03 91 1005.4
20260509121436 48 351 5.2 11.3 0.00 0.03 0.03 91 1005.5
20260509121318 48 309 5.2 11.3 0.00 0.03 0.03 91 1005.4
20260509121224 48 23 7.0 11.3 0.00 0.03 0.03 91 1005.3
20260509121112 48 355 7.0 11.3 0.00 0.03 0.03 91 1005.3
20260509121037 48 350 6.1 11.3 0.00 0.03 0.03 91 1005.3
20260509120920 48 351 7.8 11.3 0.00 0.03 0.03 91 1005.3
20260509120826 48 355 8.7 11.3 0.00 0.03 0.03 91 1005.3
20260509120730 48 355 7.8 10.4 0.00 0.03 0.03 92 1005.3
20260509120612 48 5 7.0 9.6 0.00 0.03 0.03 92 1005.2
20260509120518 48 340 5.2 9.6 0.00 0.03 0.03 92 1005.1
20260509120424 48 349 4.3 9.6 0.00 0.03 0.03 92 1005.1
20260509120307 48 322 4.3 9.6 0.00 0.03 0.03 92 1005.0
20260509120212 48 355 5.2 9.6 0.00 0.03 0.03 92 1005.0
20260509120115 48 345 5.2 9.6 0.00 0.03 0.03 92 1005.0
20260509120018 48 355 6.1 9.6 0.00 0.03 0.03 92 1005.0
20260509115922 48 341 6.1 9.6 0.00 0.03 0.03 92 1005.0
20260509115810 48 330 4.3 9.6 0.00 0.03 0.03 92 1004.9
20260509115714 48 12 3.5 5.2 0.00 0.03 0.03 92 1004.9
20260509115618 48 350 3.5 5.2 0.00 0.03 0.03 92 1004.9
20260509115522 48 355 3.5 5.2 0.00 0.03 0.03 92 1004.9
20260509115426 48 10 3.5 5.2 0.00 0.03 0.03 92 1004.9
20260509115309 48 355 1.7 5.2 0.00 0.03 0.03 92 1004.9
20260509115216 48 342 2.6 5.2 0.00 0.03 0.03 92 1004.8
20260509115121 48 346 3.5 5.2 0.00 0.03 0.03 92 1004.9
20260509115023 48 15 3.5 5.2 0.00 0.03 0.03 92 1004.9
20260509114907 48 5 2.6 5.2 0.00 0.03 0.03 92 1004.9
20260509114811 48 355 2.6 5.2 0.00 0.03 0.03 92 1004.8
20260509114716 48 355 3.5 5.2 0.00 0.03 0.03 92 1004.8
20260509114624 48 19 3.5 5.2 0.00 0.03 0.03 92 1004.7
20260509114528 48 355 3.5 5.2 0.00 0.03 0.03 92 1004.8
20260509114406 48 17 3.5 5.2 0.00 0.03 0.03 92 1004.7
20260509114331 48 355 3.5 5.2 0.00 0.03 0.03 92 1004.8
20260509114215 48 355 3.5 5.2 0.00 0.03 0.03 92 1004.8
20260509114120 48 350 3.5 7.0 0.00 0.03 0.03 92 1004.7
20260509114030 48 31 2.6 7.0 0.00 0.03 0.03 92 1004.7
20260509113906 47 9 2.6 7.0 0.00 0.03 0.03 92 1004.7
20260509113830 47 5 2.6 7.0 0.00 0.03 0.03 92 1004.7
20260509113708 47 5 1.7 7.0 0.00 0.03 0.03 92 1004.7
20260509113633 47 328 1.7 7.0 0.01 0.03 0.03 91 1004.7
20260509113509 47 343 1.7 7.0 0.01 0.03 0.03 91 1004.6
20260509113419 47 343 2.6 7.0 0.01 0.03 0.03 91 1004.6
20260509113343 47 337 3.5 7.0 0.01 0.03 0.03 91 1004.6
20260509113228 47 345 3.5 4.3 0.01 0.03 0.03 92 1004.6
20260509113131 47 351 3.5 4.3 0.01 0.03 0.03 92 1004.5
20260509113008 47 355 2.6 3.5 0.02 0.03 0.03 91 1004.6
20260509112912 47 331 1.7 3.5 0.02 0.03 0.03 91 1004.5
20260509112818 47 316 1.7 3.5 0.02 0.03 0.03 91 1004.5
20260509112740 47 346 1.7 3.5 0.02 0.03 0.03 91 1004.5
20260509112607 47 351 0.9 4.3 0.02 0.03 0.03 91 1004.5
20260509112533 47 351 0.9 4.3 0.02 0.03 0.03 91 1004.5
20260509112410 47 351 1.7 4.3 0.02 0.03 0.03 91 1004.4
20260509112334 47 351 1.7 4.3 0.02 0.03 0.03 91 1004.4
20260509112216 47 351 1.7 4.3 0.02 0.03 0.03 91 1004.4
20260509112121 47 347 1.7 4.3 0.02 0.03 0.03 91 1004.4
20260509112008 47 340 1.7 4.3 0.02 0.03 0.03 91 1004.3
20260509111911 47 329 2.6 4.3 0.02 0.03 0.03 91 1004.3
20260509111814 47 355 2.6 4.3 0.02 0.03 0.03 91 1004.3
20260509111717 47 339 2.6 4.3 0.03 0.03 0.03 91 1004.3
20260509111622 47 360 1.7 3.5 0.03 0.03 0.03 91 1004.2
20260509111543 47 360 1.7 3.5 0.03 0.03 0.03 91 1004.2
20260509111411 48 355 1.7 3.5 0.03 0.03 0.03 91 1004.2
20260509111314 48 332 1.7 3.5 0.03 0.03 0.03 90 1004.2
20260509111219 47 329 1.7 3.5 0.03 0.03 0.03 90 1004.0
20260509111123 47 15 1.7 3.5 0.03 0.03 0.03 90 1004.0
20260509111045 48 16 1.7 3.5 0.03 0.03 0.03 90 1004.0
20260509110910 48 355 1.7 3.5 0.03 0.03 0.03 90 1004.0
20260509110815 48 355 1.7 3.5 0.03 0.03 0.03 90 1004.0
20260509110726 48 333 1.7 3.5 0.03 0.03 0.03 90 1004.0
20260509110646 48 333 1.7 3.5 0.03 0.03 0.03 90 1004.0
20260509110511 48 349 1.7 3.5 0.03 0.03 0.03 90 1003.8
20260509110416 48 348 1.7 3.5 0.03 0.03 0.03 90 1003.9
20260509110321 48 350 1.7 3.5 0.03 0.03 0.03 90 1003.9
20260509110207 48 350 1.7 3.5 0.03 0.03 0.03 90 1003.9
20260509110135 48 350 1.7 3.5 0.03 0.03 0.03 90 1003.9
20260509110040 48 345 2.6 3.5 0.03 0.03 0.03 90 1003.9
20260509105944 48 13 2.6 3.5 0.03 0.03 0.03 90 1003.8
20260509105809 48 10 1.7 3.5 0.03 0.03 0.03 90 1003.8
20260509105715 48 307 1.7 4.3 0.03 0.03 0.03 90 1003.8
20260509105620 48 10 1.7 4.3 0.03 0.03 0.03 90 1003.8
20260509105525 48 11 1.7 4.3 0.03 0.03 0.03 89 1003.9
20260509105432 48 13 1.7 4.3 0.03 0.03 0.03 89 1003.8
20260509105316 48 17 1.7 4.3 0.03 0.03 0.03 89 1003.7
20260509105220 48 22 1.7 4.3 0.03 0.03 0.03 89 1003.8
20260509105106 48 22 1.7 4.3 0.03 0.03 0.03 89 1003.7
20260509105031 48 23 2.6 4.3 0.03 0.03 0.03 89 1003.7
20260509104934 48 23 3.5 4.3 0.03 0.03 0.03 89 1003.7
20260509104809 48 355 3.5 4.3 0.03 0.03 0.03 89 1003.7
20260509104718 48 351 2.6 3.5 0.03 0.03 0.03 89 1003.6
20260509104622 48 9 1.7 2.6 0.03 0.03 0.03 89 1003.7
20260509104507 48 5 1.7 3.5 0.03 0.03 0.03 89 1003.7
20260509104410 48 5 1.7 3.5 0.03 0.03 0.03 89 1003.6
20260509104315 48 5 1.7 3.5 0.03 0.03 0.03 88 1003.6
20260509104219 48 360 1.7 3.5 0.03 0.03 0.03 88 1003.5
20260509104127 48 330 1.7 3.5 0.03 0.03 0.03 88 1003.5
20260509104031 48 325 1.7 3.5 0.03 0.03 0.03 88 1003.5
20260509103908 48 331 0.9 3.5 0.03 0.03 0.03 88 1003.4
20260509103813 48 331 1.7 3.5 0.03 0.03 0.03 88 1003.4
20260509103717 48 330 0.9 3.5 0.03 0.03 0.03 88 1003.4
20260509103622 48 338 0.9 3.5 0.02 0.02 0.02 88 1003.4
20260509103529 48 14 0.9 3.5 0.02 0.02 0.02 88 1003.5
20260509103453 48 14 0.9 3.5 0.02 0.02 0.02 88 1003.4
20260509103308 48 14 0.9 3.5 0.02 0.02 0.02 87 1003.4
20260509103231 48 14 1.7 3.5 0.02 0.02 0.02 87 1003.4
20260509103114 48 13 1.7 3.5 0.01 0.01 0.01 87 1003.5
20260509103019 48 13 2.6 3.5 0.01 0.01 0.01 87 1003.6
20260509102923 48 15 2.6 3.5 0.01 0.01 0.01 87 1003.6
20260509102831 48 43 1.7 3.5 0.01 0.01 0.01 87 1003.6
20260509102734 48 43 1.7 3.5 0.01 0.01 0.01 87 1003.5
20260509102610 48 49 1.7 2.6 0.01 0.01 0.01 86 1003.5
20260509102513 48 49 0.9 2.6 0.01 0.01 0.01 86 1003.4
20260509102437 48 49 0.9 2.6 0.01 0.01 0.01 86 1003.4
20260509102319 48 49 1.7 2.6 0.01 0.01 0.01 86 1003.3
20260509102223 49 49 1.7 2.6 0.01 0.01 0.01 86 1003.3
20260509102111 49 50 0.0 2.6 0.01 0.01 0.01 85 1003.3
20260509102036 49 50 0.9 2.6 0.01 0.01 0.01 85 1003.4
20260509101919 49 50 1.7 2.6 0.01 0.01 0.01 85 1003.4
20260509101822 49 50 1.7 2.6 0.00 0.00 0.00 85 1003.5
20260509101707 49 50 1.7 2.6 0.00 0.00 0.00 85 1003.5
20260509101611 49 50 1.7 2.6 0.00 0.00 0.00 85 1003.5
20260509101535 49 50 0.9 2.6 0.00 0.00 0.00 84 1003.5
20260509101422 49 50 0.9 2.6 0.00 0.00 0.00 84 1003.4
20260509101307 49 50 0.0 2.6 0.00 0.00 0.00 84 1003.3
20260509101231 49 50 0.9 2.6 0.00 0.00 0.00 84 1003.4
20260509101107 49 50 1.7 2.6 0.00 0.00 0.00 84 1003.3
20260509101011 49 50 1.7 2.6 0.00 0.00 0.00 84 1003.4
20260509100915 49 51 1.7 2.6 0.00 0.00 0.00 83 1003.4
20260509100823 49 51 1.7 2.6 0.00 0.00 0.00 83 1003.4
20260509100707 49 51 1.7 2.6 0.00 0.00 0.00 83 1003.4
20260509100631 49 51 1.7 2.6 0.00 0.00 0.00 83 1003.3
20260509100508 49 51 0.9 1.7 0.00 0.00 0.00 82 1003.3
20260509100412 49 51 0.0 1.7 0.00 0.00 0.00 82 1003.2
20260509100316 49 51 0.0 1.7 0.00 0.00 0.00 82 1003.3
20260509100224 49 51 0.9 1.7 0.00 0.00 0.00 82 1003.2
20260509100129 49 51 0.9 1.7 0.00 0.00 0.00 82 1003.2
20260509100006 49 51 0.0 1.7 0.00 0.00 0.00 82 1003.3
20260509095911 50 51 0.0 1.7 0.00 0.00 0.00 82 1003.3
20260509095817 50 51 0.0 2.6 0.00 0.00 0.00 81 1003.2
20260509095739 50 51 0.0 2.6 0.00 0.00 0.00 81 1003.3
20260509095606 50 51 0.0 2.6 0.00 0.00 0.00 81 1003.3
20260509095510 50 51 0.9 5.2 0.00 0.00 0.00 81 1003.3
20260509095434 50 51 0.9 5.2 0.00 0.00 0.00 81 1003.4
20260509095317 50 51 1.7 5.2 0.00 0.00 0.00 81 1003.3
20260509095220 50 51 1.7 5.2 0.00 0.00 0.00 80 1003.4
20260509095123 50 51 1.7 5.2 0.00 0.00 0.00 80 1003.4
20260509095027 50 51 1.7 5.2 0.00 0.00 0.00 79 1003.5
20260509094931 50 51 1.7 5.2 0.00 0.00 0.00 80 1003.3
20260509094806 50 51 2.6 5.2 0.00 0.00 0.00 79 1003.3
20260509094730 50 51 3.5 5.2 0.00 0.00 0.00 79 1003.3
20260509094607 50 10 3.5 7.0 0.00 0.00 0.00 78 1003.4
20260509094509 50 34 3.5 7.0 0.00 0.00 0.00 78 1003.5
20260509094413 50 24 3.5 7.0 0.00 0.00 0.00 78 1003.5
20260509094319 50 40 2.6 7.0 0.00 0.00 0.00 77 1003.5
20260509094206 51 35 2.6 7.0 0.00 0.00 0.00 77 1003.5
20260509094130 51 35 3.5 7.8 0.00 0.00 0.00 77 1003.6
20260509094007 51 44 2.6 7.8 0.00 0.00 0.00 76 1003.7
20260509093911 51 26 2.6 7.8 0.00 0.00 0.00 75 1003.6
20260509093815 51 26 3.5 7.8 0.00 0.00 0.00 75 1003.7
20260509093739 51 360 3.5 7.8 0.00 0.00 0.00 75 1003.7
20260509093606 51 17 3.5 7.8 0.00 0.00 0.00 74 1003.7
20260509093509 51 5 3.5 7.8 0.00 0.00 0.00 74 1003.8
20260509093412 51 26 5.2 8.7 0.00 0.00 0.00 73 1003.7
20260509093336 51 360 6.1 8.7 0.00 0.00 0.00 73 1003.6
20260509093218 51 15 5.2 8.7 0.00 0.00 0.00 73 1003.7
20260509093121 51 15 4.3 8.7 0.00 0.00 0.00 73 1003.8
20260509093045 52 5 2.6 8.7 0.00 0.00 0.00 72 1003.8
20260509092931 52 5 2.6 8.7 0.00 0.00 0.00 72 1003.8
20260509092807 52 340 3.5 8.7 0.00 0.00 0.00 71 1003.8
20260509092711 52 340 4.3 8.7 0.00 0.00 0.00 70 1003.8
20260509092613 52 5 5.2 8.7 0.00 0.00 0.00 70 1003.8
20260509092516 52 355 5.2 8.7 0.00 0.00 0.00 69 1003.8
20260509092418 52 355 4.3 8.7 0.00 0.00 0.00 69 1003.8
20260509092342 52 5 4.3 9.6 0.00 0.00 0.00 68 1003.8
20260509092228 52 11 5.2 9.6 0.00 0.00 0.00 68 1003.8
20260509092110 52 348 5.2 9.6 0.00 0.00 0.00 68 1003.8
20260509092032 52 32 5.2 9.6 0.00 0.00 0.00 67 1003.8
20260509091936 52 12 5.2 9.6 0.00 0.00 0.00 67 1003.7
20260509091837 52 348 5.2 9.6 0.00 0.00 0.00 66 1003.7
20260509091716 52 355 6.1 9.6 0.00 0.00 0.00 66 1003.7
20260509091619 52 40 6.1 9.6 0.00 0.00 0.00 65 1003.7
20260509091522 52 360 5.2 7.8 0.00 0.00 0.00 65 1003.7
20260509091431 52 11 4.3 7.8 0.00 0.00 0.00 65 1003.7
20260509091308 52 11 3.5 7.8 0.00 0.00 0.00 64 1003.7
20260509091232 52 11 3.5 7.8 0.00 0.00 0.00 64 1003.6
20260509091107 52 21 4.3 8.7 0.00 0.00 0.00 64 1003.6
20260509091031 52 13 3.5 8.7 0.00 0.00 0.00 64 1003.6
20260509090907 52 43 3.5 8.7 0.00 0.00 0.00 63 1003.4
20260509090830 52 355 3.5 8.7 0.00 0.00 0.00 63 1003.4
20260509090717 52 54 3.5 8.7 0.00 0.00 0.00 63 1003.4
20260509090621 52 18 4.3 8.7 0.00 0.00 0.00 62 1003.3
20260509090543 52 33 4.3 8.7 0.00 0.00 0.00 62 1003.4
20260509090427 52 33 4.3 8.7 0.00 0.00 0.00 62 1003.3
20260509090307 52 355 4.3 8.7 0.00 0.00 0.00 61 1003.3
20260509090211 52 37 5.2 8.7 0.00 0.00 0.00 61 1003.3
20260509090135 52 39 5.2 8.7 0.00 0.00 0.00 61 1003.3
20260509090038 52 17 5.2 8.7 0.00 0.00 0.00 60 1003.3
20260509085924 52 355 4.3 7.8 0.00 0.00 0.00 60 1003.3
20260509085828 52 36 2.6 9.6 0.00 0.00 0.00 59 1003.3
20260509085710 52 28 2.6 11.3 0.00 0.00 0.00 59 1003.3
20260509085613 52 28 3.5 11.3 0.00 0.00 0.00 59 1003.4
20260509085517 52 22 3.5 11.3 0.00 0.00 0.00 59 1003.4
20260509085440 52 30 3.5 11.3 0.00 0.00 0.00 58 1003.3
20260509085342 52 35 5.2 11.3 0.00 0.00 0.00 59 1003.4
20260509085210 52 22 5.2 11.3 0.00 0.00 0.00 58 1003.5
20260509085132 52 30 6.1 11.3 0.00 0.00 0.00 58 1003.5
20260509085008 52 12 6.1 11.3 0.00 0.00 0.00 58 1003.5
20260509084933 52 333 7.0 11.3 0.00 0.00 0.00 58 1003.5
20260509084809 52 26 6.1 11.3 0.00 0.00 0.00 57 1003.5
20260509084711 52 25 3.5 9.6 0.00 0.00 0.00 57 1003.5
20260509084618 52 355 4.3 8.7 0.00 0.00 0.00 56 1003.5
20260509084522 52 33 4.3 8.7 0.00 0.00 0.00 56 1003.4
20260509084445 52 5 4.3 8.7 0.00 0.00 0.00 56 1003.4
20260509084308 52 21 5.2 8.7 0.00 0.00 0.00 56 1003.4
20260509084212 52 15 5.2 8.7 0.00 0.00 0.00 56 1003.5
20260509084114 52 355 5.2 8.7 0.00 0.00 0.00 56 1003.5
20260509084017 52 5 5.2 8.7 0.00 0.00 0.00 55 1003.4
20260509083924 52 355 5.2 7.8 0.00 0.00 0.00 55 1003.4
20260509083827 52 355 5.2 7.8 0.00 0.00 0.00 55 1003.4
20260509083750 52 5 4.3 7.8 0.00 0.00 0.00 55 1003.4
20260509083606 52 13 2.6 7.8 0.00 0.00 0.00 55 1003.3
20260509083531 52 41 2.6 7.8 0.00 0.00 0.00 55 1003.3
20260509083407 52 355 3.5 7.8 0.00 0.00 0.00 55 1003.3
20260509083316 51 338 3.5 7.8 0.00 0.00 0.00 55 1003.3
20260509083218 51 348 3.5 7.8 0.00 0.00 0.00 55 1003.4
20260509083122 51 360 4.3 7.8 0.00 0.00 0.00 55 1003.4
20260509083027 51 5 4.3 7.8 0.00 0.00 0.00 55 1003.3
20260509082930 51 331 3.5 7.8 0.00 0.00 0.00 55 1003.2
20260509082806 51 15 2.6 7.8 0.00 0.00 0.00 55 1003.3
20260509082710 51 343 3.5 8.7 0.00 0.00 0.00 55 1003.2
20260509082619 51 5 3.5 8.7 0.00 0.00 0.00 55 1003.3
20260509082544 51 355 4.3 8.7 0.00 0.00 0.00 56 1003.3
20260509082428 51 325 4.3 8.7 0.00 0.00 0.00 55 1003.3
20260509082312 51 333 4.3 8.7 0.00 0.00 0.00 55 1003.3
20260509082236 51 5 5.2 8.7 0.00 0.00 0.00 55 1003.3
20260509082118 51 334 5.2 8.7 0.00 0.00 0.00 55 1003.4
20260509082023 51 20 5.2 8.7 0.00 0.00 0.00 56 1003.3
20260509081930 51 11 4.3 8.7 0.00 0.00 0.00 57 1003.3
20260509081814 51 355 4.3 8.7 0.00 0.00 0.00 57 1003.3
20260509081717 50 355 4.3 8.7 0.00 0.00 0.00 57 1003.2
20260509081621 50 25 4.3 8.7 0.00 0.00 0.00 57 1003.2
20260509081524 50 360 3.5 8.7 0.00 0.00 0.00 58 1003.1
20260509081409 50 16 2.6 7.8 0.00 0.00 0.00 59 1003.1
20260509081316 50 347 2.6 7.8 0.00 0.00 0.00 59 1003.1
20260509081221 50 17 4.3 7.8 0.00 0.00 0.00 59 1003.2
20260509081125 50 18 4.3 7.8 0.00 0.00 0.00 59 1003.1
20260509081028 49 351 3.5 7.8 0.00 0.00 0.00 61 1003.1
20260509080911 49 360 2.6 7.8 0.00 0.00 0.00 60 1003.1
20260509080816 49 327 3.5 7.8 0.00 0.00 0.00 61 1003.2
20260509080720 49 334 4.3 7.8 0.00 0.00 0.00 61 1003.2
20260509080628 49 346 4.3 7.8 0.00 0.00 0.00 62 1003.1
20260509080506 48 331 3.5 7.8 0.00 0.00 0.00 65 1003.2
20260509080410 48 355 3.5 7.8 0.00 0.00 0.00 65 1003.2
20260509080314 48 355 3.5 7.8 0.00 0.00 0.00 67 1003.0
20260509080237 48 340 2.6 5.2 0.00 0.00 0.00 68 1003.1
20260509080119 48 342 2.6 4.3 0.00 0.00 0.00 68 1003.1
20260509075931 48 53 1.7 3.5 0.00 0.00 0.00 68 1003.0
20260509075808 48 56 1.7 3.5 0.00 0.00 0.00 68 1003.0
20260509075712 48 69 1.7 3.5 0.00 0.00 0.00 69 1003.1
20260509075636 48 69 1.7 3.5 0.00 0.00 0.00 71 1003.1
20260509075520 48 69 1.7 2.6 0.00 0.00 0.00 69 1003.1
20260509075408 48 69 1.7 2.6 0.00 0.00 0.00 69 1003.1
20260509075332 48 69 1.7 2.6 0.00 0.00 0.00 69 1003.0
20260509075210 48 69 1.7 2.6 0.00 0.00 0.00 69 1002.9
20260509075113 48 69 1.7 1.7 0.00 0.00 0.00 69 1002.8
20260509075017 48 69 0.9 1.7 0.00 0.00 0.00 68 1002.8
20260509074921 48 69 0.9 1.7 0.00 0.00 0.00 66 1002.7
20260509074846 48 69 0.0 1.7 0.00 0.00 0.00 67 1002.6
20260509074732 48 69 0.0 0.0 0.00 0.00 0.00 67 1002.5
20260509074610 48 69 0.0 0.0 0.00 0.00 0.00 67 1002.4
20260509074515 48 69 0.0 0.0 0.00 0.00 0.00 67 1002.4
20260509074419 48 69 0.0 0.0 0.00 0.00 0.00 68 1002.4
20260509074323 48 69 0.0 0.0 0.00 0.00 0.00 68 1002.4
20260509074229 48 69 0.0 0.0 0.00 0.00 0.00 68 1002.5
20260509074131 48 69 0.0 0.0 0.00 0.00 0.00 68 1002.4
20260509074018 48 69 0.0 0.0 0.00 0.00 0.00 68 1002.4
20260509073922 48 69 0.0 0.9 0.00 0.00 0.00 68 1002.5
20260509073807 48 69 0.0 0.9 0.00 0.00 0.00 68 1002.5
20260509073712 48 69 0.0 1.7 0.00 0.00 0.00 69 1002.6
20260509073616 48 69 0.0 1.7 0.00 0.00 0.00 69 1002.5
20260509073521 48 69 0.0 1.7 0.00 0.00 0.00 69 1002.6
20260509073429 48 69 0.0 1.7 0.00 0.00 0.00 70 1002.6
20260509073306 48 69 0.0 1.7 0.00 0.00 0.00 70 1002.6
20260509073211 48 69 0.0 2.6 0.00 0.00 0.00 70 1002.7
20260509073116 48 69 0.9 4.3 0.00 0.00 0.00 69 1002.7
20260509073020 48 69 0.9 4.3 0.00 0.00 0.00 68 1002.8
20260509072907 48 69 0.9 4.3 0.00 0.00 0.00 68 1002.7
20260509072812 48 69 0.9 4.3 0.00 0.00 0.00 68 1002.7
20260509072717 48 69 0.9 5.2 0.00 0.00 0.00 68 1002.8
20260509072641 47 69 1.7 5.2 0.00 0.00 0.00 68 1002.8
20260509072429 47 69 2.6 5.2 0.00 0.00 0.00 67 1002.7
20260509072313 47 69 3.5 5.2 0.00 0.00 0.00 68 1002.7
20260509072237 47 70 3.5 5.2 0.00 0.00 0.00 70 1002.7
20260509072144 47 70 3.5 5.2 0.00 0.00 0.00 71 1002.8
20260509072028 47 71 4.3 5.2 0.00 0.00 0.00 72 1002.7
20260509071931 47 71 4.3 5.2 0.00 0.00 0.00 72 1002.7
20260509071808 47 71 4.3 5.2 0.00 0.00 0.00 71 1002.7
20260509071733 47 71 3.5 4.3 0.00 0.00 0.00 71 1002.7
20260509071616 47 70 2.6 3.5 0.00 0.00 0.00 71 1002.7
20260509071521 47 50 2.6 3.5 0.00 0.00 0.00 71 1002.7
20260509071429 47 48 1.7 3.5 0.00 0.00 0.00 71 1002.7
20260509071306 47 277 0.9 1.7 0.00 0.00 0.00 67 1002.8
20260509071231 47 275 0.9 1.7 0.00 0.00 0.00 66 1002.7
20260509071107 47 275 0.9 1.7 0.00 0.00 0.00 67 1002.8
20260509071011 47 275 0.9 1.7 0.00 0.00 0.00 68 1002.8
20260509070936 47 275 0.9 1.7 0.00 0.00 0.00 69 1002.8
20260509070820 47 275 0.9 1.7 0.00 0.00 0.00 69 1002.8
20260509070728 47 275 0.9 1.7 0.00 0.00 0.00 69 1002.8
20260509070606 47 275 0.9 1.7 0.00 0.00 0.00 68 1002.7
20260509070511 47 275 0.9 1.7 0.00 0.00 0.00 68 1002.7
20260509070415 47 275 0.9 1.7 0.00 0.00 0.00 68 1002.8
20260509070320 47 275 0.0 1.7 0.00 0.00 0.00 67 1002.7
20260509070208 47 275 0.0 1.7 0.00 0.00 0.00 69 1002.7
20260509070132 47 275 0.9 1.7 0.00 0.00 0.00 70 1002.8
20260509070010 47 275 0.9 1.7 0.00 0.00 0.00 71 1002.8
20260509065912 47 275 0.9 1.7 0.00 0.00 0.00 71 1002.8
20260509065816 47 275 0.9 1.7 0.00 0.00 0.00 71 1002.7
20260509065720 47 275 0.9 1.7 0.00 0.00 0.00 71 1002.8
20260509065608 47 275 0.9 1.7 0.00 0.00 0.00 71 1002.8
20260509065511 47 275 0.9 1.7 0.00 0.00 0.00 71 1002.8
20260509065416 47 275 0.9 1.7 0.00 0.00 0.00 72 1002.8
20260509065320 47 275 0.9 1.7 0.00 0.00 0.00 73 1002.8
20260509065224 47 275 0.9 1.7 0.00 0.00 0.00 73 1002.7
20260509065109 46 275 0.0 1.7 0.00 0.00 0.00 71 1002.8
20260509065016 46 275 0.0 1.7 0.00 0.00 0.00 71 1002.8
20260509064920 46 275 0.0 1.7 0.00 0.00 0.00 71 1002.8
20260509064824 46 275 0.0 1.7 0.00 0.00 0.00 72 1002.8
20260509064709 46 275 0.0 1.7 0.00 0.00 0.00 71 1002.8
20260509064614 46 275 0.9 1.7 0.00 0.00 0.00 70 1002.7
20260509064518 46 275 0.9 1.7 0.00 0.00 0.00 71 1002.8
20260509064442 46 275 0.9 1.7 0.00 0.00 0.00 71 1002.8
20260509064329 46 275 0.9 1.7 0.00 0.00 0.00 71 1002.7
20260509064213 46 275 0.9 1.7 0.00 0.00 0.00 71 1002.7
20260509064137 46 275 0.9 1.7 0.00 0.00 0.00 71 1002.7
20260509064020 46 275 0.9 1.7 0.00 0.00 0.00 72 1002.6
20260509063945 46 275 0.9 1.7 0.00 0.00 0.00 71 1002.5
20260509063808 46 275 0.0 2.6 0.00 0.00 0.00 70 1002.5
20260509063712 46 275 0.0 2.6 0.00 0.00 0.00 70 1002.4
20260509063640 46 275 0.0 2.6 0.00 0.00 0.00 70 1002.5
20260509063524 46 275 0.0 2.6 0.00 0.00 0.00 70 1002.5
20260509063409 46 275 0.0 2.6 0.00 0.00 0.00 70 1002.7
20260509063313 46 275 0.0 2.6 0.00 0.00 0.00 70 1002.5
20260509063217 46 275 0.9 2.6 0.00 0.00 0.00 70 1002.5
20260509063122 46 275 1.7 2.6 0.00 0.00 0.00 70 1002.4
20260509063010 46 275 1.7 2.6 0.00 0.00 0.00 70 1002.5
20260509062915 46 276 1.7 1.7 0.00 0.00 0.00 69 1002.4
20260509062819 46 276 0.9 1.7 0.00 0.00 0.00 68 1002.6
20260509062724 46 276 0.9 1.7 0.00 0.00 0.00 68 1002.7
20260509062609 46 276 0.9 1.7 0.00 0.00 0.00 69 1002.7
20260509062512 46 276 0.9 1.7 0.00 0.00 0.00 69 1002.7
20260509062441 46 276 0.9 1.7 0.00 0.00 0.00 69 1002.7
20260509062344 46 276 0.9 1.7 0.00 0.00 0.00 68 1002.7
20260509062228 46 276 0.9 1.7 0.00 0.00 0.00 67 1002.7
20260509062130 46 276 0.9 1.7 0.00 0.00 0.00 67 1002.7
20260509062007 46 276 0.9 1.7 0.00 0.00 0.00 65 1002.7
20260509061911 46 276 0.9 1.7 0.00 0.00 0.00 65 1002.6
20260509061815 46 276 0.9 1.7 0.00 0.00 0.00 65 1002.6
20260509061739 46 276 0.9 1.7 0.00 0.00 0.00 63 1002.6
20260509061607 46 276 0.0 1.7 0.00 0.00 0.00 61 1002.6
20260509061511 46 276 0.0 0.9 0.00 0.00 0.00 61 1002.7
20260509061437 46 276 0.0 0.9 0.00 0.00 0.00 61 1002.8
20260509061320 46 276 0.0 0.9 0.00 0.00 0.00 61 1002.8
20260509061225 46 276 0.0 0.9 0.00 0.00 0.00 61 1002.8
20260509061129 46 276 0.0 0.9 0.00 0.00 0.00 61 1002.8
20260509061017 46 276 0.0 1.7 0.00 0.00 0.00 61 1002.7
20260509060922 46 276 0.0 1.7 0.00 0.00 0.00 61 1002.7
20260509060826 46 276 0.0 1.7 0.00 0.00 0.00 61 1002.7
20260509060731 46 276 0.0 1.7 0.00 0.00 0.00 61 1002.7
20260509060633 46 276 0.0 1.7 0.00 0.00 0.00 61 1002.7
20260509060516 46 276 0.0 1.7 0.00 0.00 0.00 61 1002.6
20260509060421 46 276 0.9 1.7 0.00 0.00 0.00 61 1002.7
20260509060308 46 276 0.9 1.7 0.00 0.00 0.00 61 1002.7
20260509060233 46 276 0.9 1.7 0.00 0.00 0.00 61 1002.7
20260509060110 46 276 0.9 1.7 0.00 0.00 0.00 61 1002.8
20260509060015 46 276 0.9 1.7 0.00 0.00 0.00 62 1002.7
20260509055920 46 276 0.9 1.7 0.00 0.00 0.00 62 1002.7
20260509055823 46 276 0.9 1.7 0.00 0.00 0.00 62 1002.7
20260509055731 46 276 0.9 1.7 0.00 0.00 0.00 62 1002.7
20260509055615 46 276 0.9 1.7 0.00 0.00 0.00 62 1002.7
20260509055539 46 276 0.9 1.7 0.00 0.00 0.00 61 1002.7
20260509055422 46 276 1.7 1.7 0.00 0.00 0.00 60 1002.7
20260509055325 46 276 1.7 1.7 0.00 0.00 0.00 60 1002.7
20260509055209 46 277 1.7 1.7 0.00 0.00 0.00 62 1002.8
20260509055113 46 277 0.9 1.7 0.00 0.00 0.00 62 1002.8
20260509055021 46 277 0.9 1.7 0.00 0.00 0.00 63 1002.8
20260509054926 46 321 0.0 0.9 0.00 0.00 0.00 64 1002.8
20260509054810 46 321 0.0 0.9 0.00 0.00 0.00 65 1002.8
20260509054714 46 321 0.0 0.9 0.00 0.00 0.00 64 1003.0
20260509054617 46 321 0.0 0.9 0.00 0.00 0.00 64 1003.0
20260509054521 46 321 0.0 0.9 0.00 0.00 0.00 65 1003.1
20260509054409 46 321 0.0 0.9 0.00 0.00 0.00 64 1003.1
20260509054313 46 321 0.0 0.9 0.00 0.00 0.00 64 1003.1
20260509054217 46 321 0.0 0.9 0.00 0.00 0.00 65 1003.1
20260509054142 46 321 0.0 0.9 0.00 0.00 0.00 65 1003.0
20260509054006 46 321 0.0 0.9 0.00 0.00 0.00 65 1003.0
20260509053911 46 321 0.0 0.9 0.00 0.00 0.00 64 1003.1
20260509053839 46 321 0.0 0.9 0.00 0.00 0.00 64 1003.0
20260509053742 46 321 0.0 0.9 0.00 0.00 0.00 64 1003.1
20260509053624 46 321 0.0 0.9 0.00 0.00 0.00 64 1003.1
20260509053528 46 321 0.0 0.9 0.00 0.00 0.00 64 1003.1
20260509053451 46 321 0.0 0.0 0.00 0.00 0.00 64 1003.1
20260509053307 46 321 0.0 0.0 0.00 0.00 0.00 63 1003.1
20260509053212 46 321 0.0 0.0 0.00 0.00 0.00 63 1003.1
20260509053138 47 321 0.0 0.0 0.00 0.00 0.00 62 1003.1
20260509053024 47 321 0.0 0.0 0.00 0.00 0.00 62 1003.1
20260509052928 47 321 0.0 0.0 0.00 0.00 0.00 62 1003.1
20260509052853 47 321 0.0 0.0 0.00 0.00 0.00 62 1003.1
20260509052709 47 321 0.0 0.0 0.00 0.00 0.00 61 1003.1
20260509052635 47 321 0.0 0.0 0.00 0.00 0.00 60 1003.1
20260509052518 47 321 0.0 0.0 0.00 0.00 0.00 60 1003.1
20260509052407 47 321 0.0 0.0 0.00 0.00 0.00 60 1003.1
20260509052331 47 321 0.0 0.0 0.00 0.00 0.00 60 1003.2
20260509052206 47 321 0.0 0.0 0.00 0.00 0.00 59 1003.2
20260509052111 47 321 0.0 0.0 0.00 0.00 0.00 58 1003.2
20260509052035 47 321 0.0 0.0 0.00 0.00 0.00 58 1003.3
20260509051919 47 321 0.0 0.9 0.00 0.00 0.00 58 1003.2
20260509051824 47 321 0.0 0.9 0.00 0.00 0.00 57 1003.2
20260509051733 48 321 0.0 0.9 0.00 0.00 0.00 58 1003.1
20260509051636 48 321 0.0 0.9 0.00 0.00 0.00 57 1003.1
20260509051519 48 321 0.0 1.7 0.00 0.00 0.00 57 1003.2
20260509051443 48 321 0.0 1.7 0.00 0.00 0.00 58 1003.1
20260509051326 48 321 0.0 1.7 0.00 0.00 0.00 57 1003.2
20260509051231 48 321 0.0 1.7 0.00 0.00 0.00 57 1003.2
20260509051107 48 321 0.9 1.7 0.00 0.00 0.00 56 1003.1
20260509051031 48 321 0.9 1.7 0.00 0.00 0.00 54 1003.2
20260509050919 48 321 0.9 1.7 0.00 0.00 0.00 54 1003.1
20260509050823 48 321 0.9 1.7 0.00 0.00 0.00 54 1003.2
20260509050725 48 321 0.9 1.7 0.00 0.00 0.00 54 1003.2
20260509050629 49 321 0.9 1.7 0.00 0.00 0.00 54 1003.1
20260509050512 49 321 0.9 1.7 0.00 0.00 0.00 54 1003.2
20260509050416 49 321 0.0 1.7 0.00 0.00 0.00 54 1003.2
20260509050319 49 321 0.0 0.0 0.00 0.00 0.00 54 1003.2
20260509050228 49 321 0.0 0.9 0.00 0.00 0.00 54 1003.4
20260509050151 49 321 0.0 0.9 0.00 0.00 0.00 54 1003.4
20260509050008 49 321 0.0 0.9 0.00 0.00 0.00 53 1003.5
20260509045912 50 321 0.0 0.9 0.00 0.00 0.00 53 1003.4
20260509045817 50 321 0.0 0.9 0.00 0.00 0.00 53 1003.4
20260509045720 50 321 0.0 0.9 0.00 0.00 0.00 52 1003.4
20260509045609 50 321 0.0 1.7 0.00 0.00 0.00 53 1003.4
20260509045534 50 321 0.0 1.7 0.00 0.00 0.00 53 1003.4
20260509045417 50 321 0.0 1.7 0.00 0.00 0.00 54 1003.4
20260509045322 51 321 0.0 1.7 0.00 0.00 0.00 54 1003.4
20260509045227 51 321 0.9 1.7 0.00 0.00 0.00 54 1003.4
20260509045152 51 321 0.9 1.7 0.00 0.00 0.00 54 1003.4
20260509045009 51 321 0.9 1.7 0.00 0.00 0.00 53 1003.4
20260509044918 51 321 0.9 1.7 0.00 0.00 0.00 52 1003.5
20260509044821 51 321 0.9 1.7 0.00 0.00 0.00 51 1003.5
20260509044706 52 321 0.0 1.7 0.00 0.00 0.00 52 1003.5
20260509044610 52 321 0.0 1.7 0.00 0.00 0.00 51 1003.4
20260509044516 52 321 0.0 1.7 0.00 0.00 0.00 50 1003.4
20260509044420 52 321 0.0 1.7 0.00 0.00 0.00 49 1003.4
20260509044308 52 321 0.9 1.7 0.00 0.00 0.00 49 1003.5
20260509044211 53 321 0.9 1.7 0.00 0.00 0.00 50 1003.4
20260509044116 53 321 0.9 2.6 0.00 0.00 0.00 50 1003.5
20260509044040 53 321 1.7 2.6 0.00 0.00 0.00 49 1003.5
20260509043923 53 321 1.7 2.6 0.00 0.00 0.00 48 1003.4
20260509043807 53 321 1.7 2.6 0.00 0.00 0.00 48 1003.5
20260509043737 53 321 1.7 2.6 0.00 0.00 0.00 47 1003.6
20260509043642 53 321 1.7 2.6 0.00 0.00 0.00 46 1003.5
20260509043525 53 321 1.7 4.3 0.00 0.00 0.00 47 1003.5
20260509043428 54 321 1.7 4.3 0.00 0.00 0.00 47 1003.5
20260509043311 54 321 1.7 4.3 0.00 0.00 0.00 47 1003.6
20260509043216 54 321 1.7 4.3 0.00 0.00 0.00 46 1003.5
20260509043140 54 321 1.7 4.3 0.00 0.00 0.00 47 1003.5
20260509043008 54 321 1.7 4.3 0.00 0.00 0.00 45 1003.6
20260509042931 54 321 1.7 4.3 0.00 0.00 0.00 45 1003.5
20260509042815 54 321 2.6 4.3 0.00 0.00 0.00 44 1003.5
20260509042740 54 307 2.6 4.3 0.00 0.00 0.00 44 1003.6
20260509042623 54 322 2.6 3.5 0.00 0.00 0.00 44 1003.6
20260509042507 55 321 2.6 3.5 0.00 0.00 0.00 43 1003.6
20260509042412 55 321 2.6 4.3 0.00 0.00 0.00 43 1003.6
20260509042320 55 315 2.6 4.3 0.00 0.00 0.00 44 1003.6
20260509042245 55 316 1.7 4.3 0.00 0.00 0.00 43 1003.6
20260509042110 55 305 1.7 4.3 0.00 0.00 0.00 43 1003.5
20260509042013 55 301 2.6 4.3 0.00 0.00 0.00 43 1003.5
20260509041917 56 302 1.7 4.3 0.00 0.00 0.00 44 1003.5
20260509041839 56 302 1.7 5.2 0.00 0.00 0.00 42 1003.5
20260509041722 56 302 1.7 5.2 0.00 0.00 0.00 42 1003.7
20260509041610 56 302 2.6 5.2 0.00 0.00 0.00 42 1003.7
20260509041514 56 337 2.6 5.2 0.00 0.00 0.00 41 1003.8
20260509041420 56 333 2.6 5.2 0.00 0.00 0.00 42 1003.8
20260509041323 56 311 2.6 5.2 0.00 0.00 0.00 42 1003.7
20260509041207 56 326 2.6 7.0 0.00 0.00 0.00 41 1003.8
20260509041112 57 314 2.6 7.0 0.00 0.00 0.00 41 1003.8
20260509041022 57 298 2.6 7.0 0.00 0.00 0.00 42 1003.9
20260509040906 57 330 2.6 7.0 0.00 0.00 0.00 40 1003.9
20260509040830 57 315 2.6 7.0 0.00 0.00 0.00 42 1003.9
20260509040713 57 330 2.6 7.0 0.00 0.00 0.00 39 1003.9
20260509040637 57 342 3.5 7.0 0.00 0.00 0.00 40 1003.9
20260509040521 57 348 3.5 7.0 0.00 0.00 0.00 39 1003.9
20260509040409 57 334 2.6 7.0 0.00 0.00 0.00 40 1003.9
20260509040312 57 345 2.6 7.0 0.00 0.00 0.00 40 1004.0
20260509040217 57 327 3.5 7.0 0.00 0.00 0.00 39 1004.0
20260509040121 57 348 3.5 7.0 0.00 0.00 0.00 39 1003.9
20260509040024 57 344 3.5 7.0 0.00 0.00 0.00 39 1003.9
20260509035909 57 355 3.5 8.7 0.00 0.00 0.00 40 1004.0
20260509035818 57 342 3.5 8.7 0.00 0.00 0.00 39 1003.9
20260509035723 57 338 4.3 8.7 0.00 0.00 0.00 39 1003.9
20260509035628 58 355 4.3 8.7 0.00 0.00 0.00 39 1003.9
20260509035513 58 5 3.5 8.7 0.00 0.00 0.00 39 1003.8
20260509035420 58 346 4.3 8.7 0.00 0.00 0.00 38 1003.8
20260509035324 58 341 4.3 8.7 0.00 0.00 0.00 38 1003.8
20260509035230 58 15 5.2 8.7 0.00 0.00 0.00 38 1003.8
20260509035118 58 350 4.3 8.7 0.00 0.00 0.00 38 1003.9
20260509035023 58 346 3.5 8.7 0.00 0.00 0.00 38 1003.9
20260509034929 58 360 4.3 11.3 0.00 0.00 0.00 39 1003.8
20260509034813 58 302 4.3 11.3 0.00 0.00 0.00 38 1003.8
20260509034739 58 344 4.3 11.3 0.00 0.00 0.00 38 1003.8
20260509034642 58 340 3.5 11.3 0.00 0.00 0.00 38 1003.7
20260509034525 58 346 3.5 11.3 0.00 0.00 0.00 38 1003.8
20260509034415 58 320 4.3 11.3 0.00 0.00 0.00 38 1003.8
20260509034322 58 349 5.2 11.3 0.00 0.00 0.00 38 1003.8
20260509034245 58 329 6.1 11.3 0.00 0.00 0.00 38 1003.8
20260509034108 58 338 5.2 11.3 0.00 0.00 0.00 38 1003.7
20260509034032 58 341 5.2 9.6 0.00 0.00 0.00 38 1003.7
20260509033915 58 340 5.2 9.6 0.00 0.00 0.00 38 1003.7
20260509033839 58 339 4.3 9.6 0.00 0.00 0.00 38 1003.7
20260509033725 58 334 4.3 9.6 0.00 0.00 0.00 38 1003.7
20260509033609 58 331 4.3 9.6 0.00 0.00 0.00 38 1003.7
20260509033513 59 40 4.3 7.8 0.00 0.00 0.00 39 1003.7
20260509033418 58 12 4.3 7.8 0.00 0.00 0.00 38 1003.7
20260509033321 59 360 4.3 7.8 0.00 0.00 0.00 37 1003.6
20260509033225 59 340 4.3 7.8 0.00 0.00 0.00 38 1003.7
20260509033112 59 334 4.3 7.8 0.00 0.00 0.00 37 1003.7
20260509033036 59 355 4.3 7.8 0.00 0.00 0.00 38 1003.7
20260509032939 59 360 5.2 7.8 0.00 0.00 0.00 38 1003.6
20260509032822 59 360 4.3 7.8 0.00 0.00 0.00 38 1003.6
20260509032746 59 341 3.5 7.8 0.00 0.00 0.00 37 1003.6
20260509032608 59 355 4.3 7.8 0.00 0.00 0.00 37 1003.6
20260509032511 59 329 5.2 7.8 0.00 0.00 0.00 37 1003.6
20260509032415 59 347 5.2 7.8 0.00 0.00 0.00 37 1003.6
20260509032323 59 323 5.2 8.7 0.00 0.00 0.00 37 1003.6
20260509032227 59 360 5.2 8.7 0.00 0.00 0.00 37 1003.6
20260509032151 59 333 4.3 8.7 0.00 0.00 0.00 38 1003.6
20260509032006 59 341 4.3 8.7 0.00 0.00 0.00 37 1003.6
20260509031908 59 340 5.2 8.7 0.00 0.00 0.00 38 1003.6
20260509031832 59 336 5.2 8.7 0.00 0.00 0.00 37 1003.6
20260509031714 59 350 5.2 8.7 0.00 0.00 0.00 37 1003.7
20260509031623 59 343 5.2 8.7 0.00 0.00 0.00 38 1003.6
20260509031526 59 319 5.2 8.7 0.00 0.00 0.00 38 1003.6
20260509031409 60 347 5.2 8.7 0.00 0.00 0.00 37 1003.6
20260509031314 60 330 5.2 8.7 0.00 0.00 0.00 37 1003.6
20260509031218 60 342 5.2 8.7 0.00 0.00 0.00 38 1003.6
20260509031122 60 319 3.5 10.4 0.00 0.00 0.00 38 1003.5
20260509031029 60 9 5.2 10.4 0.00 0.00 0.00 37 1003.5
20260509030910 60 360 6.1 10.4 0.00 0.00 0.00 36 1003.6
20260509030812 60 5 5.2 11.3 0.00 0.00 0.00 37 1003.5
20260509030715 60 18 4.3 11.3 0.00 0.00 0.00 37 1003.5
20260509030616 60 355 4.3 11.3 0.00 0.00 0.00 36 1003.5
20260509030519 60 355 5.2 11.3 0.00 0.00 0.00 37 1003.5
20260509030423 60 324 6.1 11.3 0.00 0.00 0.00 36 1003.5
20260509030349 60 5 6.1 11.3 0.00 0.00 0.00 36 1003.5
20260509030253 60 32 7.0 11.3 0.00 0.00 0.00 36 1003.5
20260509030107 60 327 6.1 11.3 0.00 0.00 0.00 36 1003.4
20260509030013 60 355 5.2 12.2 0.00 0.00 0.00 36 1003.5
20260509025914 60 343 5.2 12.2 0.00 0.00 0.00 36 1003.5
20260509025818 60 12 5.2 12.2 0.00 0.00 0.00 37 1003.5
20260509025722 60 345 5.2 12.2 0.00 0.00 0.00 36 1003.4
20260509025628 61 9 7.0 12.2 0.00 0.00 0.00 36 1003.5
20260509025531 61 25 7.0 12.2 0.00 0.00 0.00 36 1003.5
20260509025409 61 360 7.0 12.2 0.00 0.00 0.00 36 1003.5
20260509025310 61 355 7.0 12.2 0.00 0.00 0.00 36 1003.4
20260509025214 61 346 5.2 13.0 0.00 0.00 0.00 36 1003.4
20260509025119 61 323 4.3 13.0 0.00 0.00 0.00 36 1003.4
20260509025007 61 51 6.1 13.0 0.00 0.00 0.00 36 1003.4
20260509024909 61 360 7.0 13.0 0.00 0.00 0.00 36 1003.5
20260509024832 61 321 7.8 13.9 0.00 0.00 0.00 36 1003.4
20260509024707 61 18 7.8 13.9 0.00 0.00 0.00 36 1003.4
20260509024612 61 355 7.8 13.9 0.00 0.00 0.00 36 1003.4
20260509024516 61 360 7.8 13.9 0.00 0.00 0.00 36 1003.3
20260509024440 61 311 7.8 13.9 0.00 0.00 0.00 36 1003.3
20260509024328 61 323 7.0 13.9 0.00 0.00 0.00 36 1003.3
20260509024252 61 11 6.1 13.9 0.00 0.00 0.00 36 1003.3
20260509024108 61 331 7.8 13.9 0.00 0.00 0.00 36 1003.3
20260509024013 61 355 7.8 13.9 0.00 0.00 0.00 36 1003.3
20260509023917 61 335 7.8 13.9 0.00 0.00 0.00 36 1003.3
20260509023819 61 339 7.8 13.9 0.00 0.00 0.00 36 1003.3
20260509023708 62 15 7.8 13.0 0.00 0.00 0.00 37 1003.2
20260509023631 62 317 7.8 13.0 0.00 0.00 0.00 36 1003.3
20260509023515 62 360 7.8 13.0 0.00 0.00 0.00 37 1003.3
20260509023418 62 335 7.0 13.9 0.00 0.00 0.00 37 1003.2
20260509023323 62 348 7.0 13.9 0.00 0.00 0.00 36 1003.3
20260509023207 62 330 6.1 13.9 0.00 0.00 0.00 36 1003.2
20260509023117 62 336 7.0 13.9 0.00 0.00 0.00 37 1003.2
20260509023020 62 355 6.1 13.9 0.00 0.00 0.00 36 1003.2
20260509022925 62 344 5.2 18.2 0.00 0.00 0.00 36 1003.2
20260509022849 62 31 4.3 18.2 0.00 0.00 0.00 36 1003.1
20260509022706 63 347 8.7 18.2 0.00 0.00 0.00 35 1003.1
20260509022630 63 325 9.6 18.2 0.00 0.00 0.00 35 1003.0
20260509022508 63 26 9.6 18.2 0.00 0.00 0.00 35 1003.2
20260509022417 63 344 10.4 18.2 0.00 0.00 0.00 35 1003.1
20260509022321 63 349 10.4 18.2 0.00 0.00 0.00 35 1003.1
20260509022226 63 349 12.2 18.2 0.00 0.00 0.00 35 1003.1
20260509022129 63 355 13.0 18.2 0.00 0.00 0.00 35 1003.1
20260509022054 63 347 12.2 18.2 0.00 0.00 0.00 35 1003.2
20260509021907 63 11 13.0 18.2 0.00 0.00 0.00 35 1003.1
20260509021816 63 350 13.0 18.2 0.00 0.00 0.00 35 1003.0
20260509021721 63 360 12.2 18.2 0.00 0.00 0.00 36 1003.0
20260509021626 63 351 13.0 18.2 0.00 0.00 0.00 36 1003.0
20260509021529 63 14 10.4 18.2 0.00 0.00 0.00 36 1003.0
20260509021406 63 5 8.7 18.2 0.00 0.00 0.00 36 1003.0
20260509021332 63 41 9.6 20.0 0.00 0.00 0.00 36 1003.0
20260509021213 63 329 9.6 20.0 0.00 0.00 0.00 36 1003.0
20260509021122 64 355 10.4 20.0 0.00 0.00 0.00 36 1002.8
20260509021027 64 336 10.4 20.0 0.00 0.00 0.00 36 1002.8
20260509020930 64 355 11.3 20.0 0.00 0.00 0.00 36 1002.9
20260509020831 64 13 11.3 20.0 0.00 0.00 0.00 36 1002.8
20260509020707 64 20 10.4 20.0 0.00 0.00 0.00 36 1002.7
20260509020611 64 5 11.3 20.0 0.00 0.00 0.00 35 1002.7
20260509020536 64 360 13.0 20.0 0.00 0.00 0.00 35 1002.7
20260509020440 64 340 12.2 17.4 0.00 0.00 0.00 35 1002.6
20260509020306 64 5 11.3 17.4 0.00 0.00 0.00 35 1002.7
20260509020210 64 5 9.6 16.5 0.00 0.00 0.00 35 1002.6
20260509020114 64 17 10.4 16.5 0.00 0.00 0.00 35 1002.5
20260509020017 64 355 10.4 16.5 0.00 0.00 0.00 35 1002.6
20260509015941 64 5 9.6 15.6 0.00 0.00 0.00 35 1002.5
20260509015845 64 347 7.8 15.6 0.00 0.00 0.00 35 1002.5
20260509015713 64 360 8.7 16.5 0.00 0.00 0.00 35 1002.5
20260509015618 64 360 10.4 16.5 0.00 0.00 0.00 35 1002.4
20260509015522 64 360 10.4 16.5 0.00 0.00 0.00 35 1002.5
20260509015427 64 345 9.6 16.5 0.00 0.00 0.00 35 1002.4
20260509015309 64 360 8.7 16.5 0.00 0.00 0.00 35 1002.4
20260509015214 64 338 7.8 16.5 0.00 0.00 0.00 35 1002.3
20260509015117 64 17 8.7 19.1 0.00 0.00 0.00 34 1002.3
20260509015024 64 5 8.7 19.1 0.00 0.00 0.00 34 1002.3
20260509014909 64 29 8.7 19.1 0.00 0.00 0.00 35 1002.3
20260509014834 64 15 9.6 19.1 0.00 0.00 0.00 35 1002.2
20260509014710 64 333 9.6 19.1 0.00 0.00 0.00 35 1002.2
20260509014635 64 21 8.7 19.1 0.00 0.00 0.00 34 1002.2
20260509014519 64 355 8.7 19.1 0.00 0.00 0.00 33 1002.2
20260509014407 64 15 11.3 19.1 0.00 0.00 0.00 33 1002.2
20260509014331 64 338 11.3 19.1 0.00 0.00 0.00 33 1002.2
20260509014234 64 5 10.4 14.8 0.00 0.00 0.00 33 1002.2
20260509014109 64 350 8.7 13.9 0.00 0.00 0.00 33 1002.2
20260509014034 64 340 5.2 11.3 0.00 0.00 0.00 33 1002.0
20260509013916 64 326 4.3 11.3 0.00 0.00 0.00 33 1002.1
20260509013820 64 303 3.5 11.3 0.00 0.00 0.00 33 1002.0
20260509013745 64 319 4.3 11.3 0.00 0.00 0.00 33 1002.0
20260509013613 65 344 3.5 11.3 0.00 0.00 0.00 33 1002.0
20260509013516 65 338 3.5 11.3 0.00 0.00 0.00 33 1002.0
20260509013440 65 330 4.3 11.3 0.00 0.00 0.00 32 1001.9
20260509013344 65 334 5.2 11.3 0.00 0.00 0.00 32 1002.0
20260509013226 65 350 5.2 11.3 0.00 0.00 0.00 32 1002.0
20260509013149 65 338 4.3 11.3 0.00 0.00 0.00 33 1001.9
20260509013006 65 336 5.2 11.3 0.00 0.00 0.00 32 1002.0
20260509012911 65 341 4.3 11.3 0.00 0.00 0.00 33 1001.9
20260509012819 65 5 4.3 12.2 0.00 0.00 0.00 32 1001.9
20260509012743 65 10 4.3 12.2 0.00 0.00 0.00 33 1002.0
20260509012625 65 355 5.2 12.2 0.00 0.00 0.00 32 1001.9
20260509012528 65 13 6.1 12.2 0.00 0.00 0.00 31 1001.9
20260509012406 65 329 7.0 12.2 0.00 0.00 0.00 31 1001.9
20260509012331 65 355 6.1 12.2 0.00 0.00 0.00 32 1002.0
20260509012234 65 338 6.1 12.2 0.00 0.00 0.00 32 1001.9
20260509012122 65 325 6.1 12.2 0.00 0.00 0.00 31 1001.9
20260509012007 65 329 6.1 11.3 0.00 0.00 0.00 31 1001.9
20260509011912 65 333 7.0 11.3 0.00 0.00 0.00 31 1001.9
20260509011817 65 340 7.0 11.3 0.00 0.00 0.00 31 1001.8
20260509011740 66 319 6.1 11.3 0.00 0.00 0.00 32 1001.8
20260509011624 66 348 4.3 11.3 0.00 0.00 0.00 31 1001.9
20260509011513 66 342 2.6 11.3 0.00 0.00 0.00 31 1001.8
20260509011418 66 321 3.5 11.3 0.00 0.00 0.00 32 1001.8
20260509011342 66 360 5.2 11.3 0.00 0.00 0.00 31 1001.8
20260509011225 66 337 6.1 11.3 0.00 0.00 0.00 31 1001.8
20260509011130 66 355 4.3 10.4 0.00 0.00 0.00 32 1001.8
20260509011033 66 15 4.3 10.4 0.00 0.00 0.00 31 1001.8
20260509010936 66 355 4.3 10.4 0.00 0.00 0.00 32 1001.8
20260509010839 66 286 4.3 10.4 0.00 0.00 0.00 30 1001.8
20260509010722 66 34 4.3 10.4 0.00 0.00 0.00 30 1001.8
20260509010651 66 350 3.5 10.4 0.00 0.00 0.00 30 1001.7
20260509010508 67 310 6.1 13.0 0.00 0.00 0.00 31 1001.8
20260509010431 67 323 6.1 13.0 0.00 0.00 0.00 31 1001.8
20260509010308 67 340 5.2 13.0 0.00 0.00 0.00 30 1001.8
20260509010213 67 338 4.3 13.0 0.00 0.00 0.00 30 1001.7
20260509010137 67 340 5.2 13.0 0.00 0.00 0.00 30 1001.7
20260509010021 67 5 6.1 13.0 0.00 0.00 0.00 30 1001.7
20260509005910 67 355 6.1 13.9 0.00 0.00 0.00 30 1001.7
20260509005834 67 5 6.1 13.9 0.00 0.00 0.00 30 1001.7
20260509005709 67 5 7.0 13.9 0.00 0.00 0.00 30 1001.6
20260509005614 67 333 7.0 13.9 0.00 0.00 0.00 30 1001.7
20260509005538 67 38 5.2 13.9 0.00 0.00 0.00 30 1001.7
20260509005442 67 327 3.5 13.9 0.00 0.00 0.00 32 1001.7
20260509005309 67 333 4.3 13.9 0.00 0.00 0.00 30 1001.7
20260509005213 67 315 5.2 13.9 0.00 0.00 0.00 29 1001.7
20260509005139 67 9 7.0 13.9 0.00 0.00 0.00 29 1001.7
20260509005041 67 333 6.1 13.9 0.00 0.00 0.00 29 1001.6
20260509004924 67 344 5.2 11.3 0.00 0.00 0.00 30 1001.7
20260509004827 68 328 7.8 11.3 0.00 0.00 0.00 29 1001.6
20260509004711 68 348 7.8 13.0 0.00 0.00 0.00 28 1001.6
20260509004614 68 350 7.0 13.0 0.00 0.00 0.00 29 1001.7
20260509004522 68 326 7.0 13.9 0.00 0.00 0.00 29 1001.7
20260509004425 68 355 7.0 13.9 0.00 0.00 0.00 28 1001.6
20260509004330 68 360 6.1 13.9 0.00 0.00 0.00 29 1001.7
20260509004206 68 328 4.3 13.9 0.00 0.00 0.00 29 1001.6
20260509004111 68 350 6.1 13.9 0.00 0.00 0.00 29 1001.6
20260509004015 68 346 7.0 13.9 0.00 0.00 0.00 29 1001.6
20260509003923 68 337 7.8 13.9 0.00 0.00 0.00 28 1001.6
20260509003828 68 5 8.7 13.9 0.00 0.00 0.00 29 1001.6
20260509003731 68 309 8.7 13.9 0.00 0.00 0.00 30 1001.6
20260509003608 68 284 7.8 13.9 0.00 0.00 0.00 29 1001.5
20260509003513 68 324 7.8 13.9 0.00 0.00 0.00 29 1001.6
20260509003438 68 323 7.0 17.4 0.00 0.00 0.00 30 1001.5
20260509003341 68 329 5.2 17.4 0.00 0.00 0.00 30 1001.5
20260509003228 68 13 7.0 17.4 0.00 0.00 0.00 30 1001.5
20260509003106 68 360 7.0 17.4 0.00 0.00 0.00 30 1001.6
20260509003010 68 325 6.1 17.4 0.00 0.00 0.00 30 1001.6
20260509002914 68 326 7.8 17.4 0.00 0.00 0.00 30 1001.6
20260509002819 68 331 8.7 17.4 0.00 0.00 0.00 29 1001.5
20260509002723 68 305 8.7 17.4 0.00 0.00 0.00 29 1001.5
20260509002632 68 321 9.6 17.4 0.00 0.00 0.00 29 1001.4
20260509002508 68 345 9.6 15.6 0.00 0.00 0.00 29 1001.6
20260509002413 68 308 10.4 15.6 0.00 0.00 0.00 28 1001.5
20260509002317 68 311 10.4 15.6 0.00 0.00 0.00 30 1001.5
20260509002221 68 322 7.8 13.9 0.00 0.00 0.00 29 1001.6
20260509002125 68 337 5.2 10.4 0.00 0.00 0.00 32 1001.7
20260509002033 69 360 3.5 9.6 0.00 0.00 0.00 31 1001.6
20260509001917 68 316 3.5 10.4 0.00 0.00 0.00 30 1001.5
20260509001821 69 360 3.5 10.4 0.00 0.00 0.00 31 1001.7
20260509001725 69 338 4.3 11.3 0.00 0.00 0.00 30 1001.5
20260509001630 69 333 3.5 11.3 0.00 0.00 0.00 32 1001.6
20260509001514 69 321 3.5 13.9 0.00 0.00 0.00 32 1001.6
20260509001419 68 298 4.3 13.9 0.00 0.00 0.00 30 1001.7
20260509001307 68 350 6.1 13.9 0.00 0.00 0.00 31 1001.6
20260509001231 68 355 6.1 13.9 0.00 0.00 0.00 31 1001.7
20260509001108 68 329 7.0 13.9 0.00 0.00 0.00 30 1001.7
20260509001013 68 320 6.1 13.9 0.00 0.00 0.00 32 1001.6
20260509000937 68 319 6.1 13.9 0.00 0.00 0.00 32 1001.6
20260509000820 68 330 6.1 13.9 0.00 0.00 0.00 31 1001.6
20260509000708 68 327 5.2 13.9 0.00 0.00 0.00 32 1001.7
20260509000612 68 317 3.5 12.2 0.00 0.00 0.00 31 1001.6
20260509000537 68 338 4.3 12.2 0.00 0.00 0.00 30 1001.6
20260509000420 69 348 7.0 12.2 0.00 0.00 0.00 30 1001.6
20260509000326 69 318 8.7 12.2 0.00 0.00 0.00 31 1001.7
20260509000229 69 323 7.0 12.2 0.00 0.00 0.00 31 1001.6
20260509000111 69 5 4.3 10.4 0.00 0.00 0.00 31 1001.6
20260509000020 69 300 4.3 10.4 0.00 0.00 0.00 32 1001.7
20260508235924 69 312 5.2 10.4 0.00 0.00 0.00 30 1001.6
20260508235828 69 355 5.2 10.4 0.00 0.00 0.00 30 1001.7
20260508235752 69 348 6.1 11.3 0.00 0.00 0.00 31 1001.7
20260508235607 69 346 6.1 11.3 0.00 0.00 0.00 31 1001.7
20260508235511 69 337 5.2 11.3 0.00 0.00 0.00 31 1001.7
20260508235420 69 350 5.2 11.3 0.00 0.00 0.00 30 1001.6
20260508235345 69 348 5.2 11.3 0.00 0.00 0.00 32 1001.6
20260508235229 69 350 4.3 11.3 0.00 0.00 0.00 31 1001.7
20260508235106 69 25 4.3 11.3 0.00 0.00 0.00 31 1001.7
20260508235011 69 5 6.1 11.3 0.00 0.00 0.00 31 1001.6
20260508234916 69 350 7.8 11.3 0.00 0.00 0.00 31 1001.6
20260508234820 69 355 7.8 11.3 0.00 0.00 0.00 30 1001.5
20260508234729 69 15 7.0 10.4 0.00 0.00 0.00 30 1001.5
20260508234606 69 24 6.1 9.6 0.00 0.00 0.00 30 1001.6
20260508234510 69 360 5.2 9.6 0.00 0.00 0.00 31 1001.6
20260508234414 69 5 4.3 9.6 0.00 0.00 0.00 31 1001.6
20260508234319 69 27 3.5 9.6 0.00 0.00 0.00 31 1001.6
20260508234207 69 38 4.3 9.6 0.00 0.00 0.00 33 1001.6
20260508234131 69 5 5.2 9.6 0.00 0.00 0.00 31 1001.6
20260508234035 69 323 6.1 12.2 0.00 0.00 0.00 30 1001.6
20260508233918 69 317 6.1 12.2 0.00 0.00 0.00 30 1001.6
20260508233821 69 355 5.2 12.2 0.00 0.00 0.00 31 1001.6
20260508233706 69 325 4.3 12.2 0.00 0.00 0.00 31 1001.6
20260508233630 69 335 4.3 12.2 0.00 0.00 0.00 31 1001.6
20260508233513 69 309 5.2 12.2 0.00 0.00 0.00 31 1001.6
20260508233421 69 339 6.1 13.9 0.00 0.00 0.00 29 1001.5
20260508233325 69 322 7.8 13.9 0.00 0.00 0.00 30 1001.6
20260508233249 69 323 7.8 13.9 0.00 0.00 0.00 30 1001.7
20260508233106 69 334 6.1 13.9 0.00 0.00 0.00 32 1001.7
20260508233009 69 349 5.2 13.9 0.00 0.00 0.00 31 1001.7
20260508232914 69 360 7.0 15.6 0.00 0.00 0.00 31 1001.7
20260508232817 69 319 6.1 15.6 0.00 0.00 0.00 31 1001.7
20260508232724 69 295 7.8 15.6 0.00 0.00 0.00 32 1001.7
20260508232629 69 285 7.8 18.2 0.00 0.00 0.00 30 1001.7
20260508232533 69 336 7.8 18.2 0.00 0.00 0.00 30 1001.6
20260508232410 69 315 8.7 18.2 0.00 0.00 0.00 31 1001.7
20260508232335 69 339 8.7 18.2 0.00 0.00 0.00 30 1001.8
20260508232238 70 342 9.6 18.2 0.00 0.00 0.00 30 1001.7
20260508232121 70 319 8.7 18.2 0.00 0.00 0.00 30 1001.7
20260508232030 70 324 7.8 18.2 0.00 0.00 0.00 29 1001.7
20260508231908 70 303 9.6 18.2 0.00 0.00 0.00 30 1001.7
20260508231812 70 321 12.2 18.2 0.00 0.00 0.00 30 1001.7
20260508231716 70 307 11.3 18.2 0.00 0.00 0.00 29 1001.8
20260508231620 69 344 9.6 18.2 0.00 0.00 0.00 30 1001.8
20260508231525 69 342 7.8 14.8 0.00 0.00 0.00 31 1001.8
20260508231414 69 349 6.1 14.8 0.00 0.00 0.00 31 1001.8
20260508231337 69 342 6.1 14.8 0.00 0.00 0.00 32 1001.8
20260508231219 69 355 7.8 14.8 0.00 0.00 0.00 31 1001.8
20260508231143 69 319 10.4 14.8 0.00 0.00 0.00 30 1001.8
20260508231007 69 324 8.7 13.9 0.00 0.00 0.00 32 1001.8
20260508230930 69 327 7.8 13.0 0.00 0.00 0.00 32 1001.7
20260508230834 69 319 7.8 13.0 0.00 0.00 0.00 32 1001.7
20260508230716 69 306 7.8 14.8 0.00 0.00 0.00 31 1001.8
20260508230624 69 327 7.8 14.8 0.00 0.00 0.00 31 1001.8
20260508230508 69 349 7.0 14.8 0.00 0.00 0.00 30 1001.8
20260508230412 69 5 5.2 14.8 0.00 0.00 0.00 30 1001.9
20260508230316 70 280 6.1 14.8 0.00 0.00 0.00 32 1001.9
20260508230219 70 347 6.1 14.8 0.00 0.00 0.00 33 1001.8
20260508230124 70 5 5.2 14.8 0.00 0.00 0.00 31 1001.8
20260508230013 70 342 7.8 14.8 0.00 0.00 0.00 30 1002.0
20260508225917 70 348 8.7 14.8 0.00 0.00 0.00 29 1001.9
20260508225821 70 347 7.0 14.8 0.00 0.00 0.00 31 1001.9
20260508225706 70 302 5.2 10.4 0.00 0.00 0.00 31 1001.8
20260508225610 70 5 5.2 10.4 0.00 0.00 0.00 31 1001.9
20260508225533 70 360 7.0 12.2 0.00 0.00 0.00 32 1001.9
20260508225436 69 321 7.0 12.2 0.00 0.00 0.00 30 1001.8
20260508225323 69 35 5.2 14.8 0.00 0.00 0.00 30 1002.0
20260508225225 69 14 6.1 14.8 0.00 0.00 0.00 30 1001.9
20260508225128 69 11 7.0 14.8 0.00 0.00 0.00 30 1001.8
20260508225010 69 348 6.1 14.8 0.00 0.00 0.00 30 1001.9
20260508224933 69 10 6.1 14.8 0.00 0.00 0.00 31 1001.9
20260508224810 69 307 7.8 14.8 0.00 0.00 0.00 30 1001.8
20260508224718 69 355 7.8 14.8 0.00 0.00 0.00 29 1001.9
20260508224621 69 16 9.6 14.8 0.00 0.00 0.00 30 1001.9
20260508224545 69 355 8.7 14.8 0.00 0.00 0.00 29 1001.8
20260508224430 70 10 6.1 13.9 0.00 0.00 0.00 30 1001.8
20260508224313 69 347 6.1 13.9 0.00 0.00 0.00 31 1001.9
20260508224217 69 325 6.1 13.9 0.00 0.00 0.00 32 1001.9
20260508224122 69 9 7.0 13.9 0.00 0.00 0.00 32 1002.0
20260508224030 69 317 6.1 13.9 0.00 0.00 0.00 32 1002.0
20260508223907 69 355 7.8 13.9 0.00 0.00 0.00 31 1001.9
20260508223811 69 340 7.8 13.9 0.00 0.00 0.00 31 1002.0
20260508223715 69 14 6.1 12.2 0.00 0.00 0.00 30 1001.9
20260508223618 69 5 7.0 12.2 0.00 0.00 0.00 32 1001.9
20260508223521 69 325 7.0 12.2 0.00 0.00 0.00 31 1001.9
20260508223445 69 306 7.0 12.2 0.00 0.00 0.00 30 1001.9
20260508223353 69 305 5.2 12.2 0.00 0.00 0.00 30 1001.9
20260508223208 69 9 5.2 12.2 0.00 0.00 0.00 32 1002.1
20260508223111 69 329 7.0 13.0 0.00 0.00 0.00 31 1002.0
20260508223016 70 341 8.7 13.0 0.00 0.00 0.00 30 1001.9
20260508222920 70 301 7.0 13.0 0.00 0.00 0.00 32 1002.0
20260508222823 70 276 6.1 13.0 0.00 0.00 0.00 31 1002.0
20260508222711 70 355 5.2 14.8 0.00 0.00 0.00 31 1002.0
20260508222615 70 345 4.3 14.8 0.00 0.00 0.00 32 1002.0
20260508222519 70 360 5.2 17.4 0.00 0.00 0.00 33 1002.1
20260508222423 70 12 7.8 19.1 0.00 0.00 0.00 30 1002.1
20260508222308 70 319 7.8 19.1 0.00 0.00 0.00 29 1002.1
20260508222231 70 360 7.0 19.1 0.00 0.00 0.00 30 1002.1
20260508222118 70 360 6.1 19.1 0.00 0.00 0.00 31 1002.1
20260508222023 69 314 7.0 19.1 0.00 0.00 0.00 32 1002.2
20260508221907 70 355 8.7 19.1 0.00 0.00 0.00 29 1002.1
20260508221831 70 313 10.4 19.1 0.00 0.00 0.00 31 1002.1
20260508221714 70 283 13.0 19.1 0.00 0.00 0.00 28 1002.0
20260508221617 70 300 13.0 19.1 0.00 0.00 0.00 29 1002.0
20260508221521 71 293 12.2 18.2 0.00 0.00 0.00 30 1002.2
20260508221409 70 300 8.7 17.4 0.00 0.00 0.00 33 1002.1
20260508221333 70 279 7.8 11.3 0.00 0.00 0.00 29 1002.1
20260508221217 70 360 7.0 13.9 0.00 0.00 0.00 30 1002.1
20260508221120 70 343 6.1 13.9 0.00 0.00 0.00 32 1002.2
20260508221023 69 295 5.2 16.5 0.00 0.00 0.00 33 1002.3
20260508220907 69 327 4.3 17.4 0.00 0.00 0.00 31 1002.2
20260508220816 69 345 6.1 17.4 0.00 0.00 0.00 32 1002.2
20260508220721 69 296 7.0 17.4 0.00 0.00 0.00 30 1002.2
20260508220646 69 304 7.8 17.4 0.00 0.00 0.00 30 1002.2
20260508220509 69 326 8.7 17.4 0.00 0.00 0.00 31 1002.3
20260508220434 69 313 9.6 17.4 0.00 0.00 0.00 31 1002.3
20260508220318 69 301 10.4 17.4 0.00 0.00 0.00 30 1002.3
20260508220209 70 306 12.2 17.4 0.00 0.00 0.00 29 1002.3
20260508220114 70 292 13.0 17.4 0.00 0.00 0.00 29 1002.3
20260508220019 70 311 12.2 17.4 0.00 0.00 0.00 30 1002.2
20260508215943 70 306 9.6 17.4 0.00 0.00 0.00 30 1002.4
20260508215808 70 360 8.7 17.4 0.00 0.00 0.00 29 1002.4
20260508215713 70 297 11.3 17.4 0.00 0.00 0.00 29 1002.3
20260508215618 70 327 11.3 17.4 0.00 0.00 0.00 28 1002.4
20260508215507 71 348 9.6 16.5 0.00 0.00 0.00 29 1002.3
20260508215412 71 341 11.3 16.5 0.00 0.00 0.00 31 1002.4
20260508215316 71 306 11.3 16.5 0.00 0.00 0.00 29 1002.2
20260508215221 72 305 8.7 14.8 0.00 0.00 0.00 30 1002.4
20260508215124 72 286 7.8 15.6 0.00 0.00 0.00 30 1002.4
20260508215012 72 348 9.6 15.6 0.00 0.00 0.00 30 1002.5
20260508214936 71 28 9.6 15.6 0.00 0.00 0.00 28 1002.4
20260508214818 71 355 8.7 15.6 0.00 0.00 0.00 30 1002.4
20260508214742 71 306 7.0 15.6 0.00 0.00 0.00 30 1002.4
20260508214625 71 323 7.0 15.6 0.00 0.00 0.00 32 1002.4
20260508214510 71 322 9.6 15.6 0.00 0.00 0.00 30 1002.5
20260508214414 71 318 10.4 15.6 0.00 0.00 0.00 29 1002.5
20260508214322 71 355 10.4 15.6 0.00 0.00 0.00 31 1002.6
20260508214206 70 315 8.7 14.8 0.00 0.00 0.00 31 1002.7
20260508214131 70 284 8.7 15.6 0.00 0.00 0.00 31 1002.6
20260508214007 70 313 9.6 15.6 0.00 0.00 0.00 30 1002.4
20260508213913 70 329 7.8 15.6 0.00 0.00 0.00 30 1002.5
20260508213837 70 314 7.0 15.6 0.00 0.00 0.00 34 1002.5
20260508213720 70 342 8.7 15.6 0.00 0.00 0.00 32 1002.5
20260508213608 70 339 9.6 15.6 0.00 0.00 0.00 32 1002.5
20260508213512 70 296 9.6 15.6 0.00 0.00 0.00 30 1002.5
20260508213435 70 315 9.6 15.6 0.00 0.00 0.00 29 1002.5
20260508213318 70 305 10.4 15.6 0.00 0.00 0.00 30 1002.7
20260508213222 70 342 9.6 15.6 0.00 0.00 0.00 29 1002.8
20260508213145 70 360 9.6 15.6 0.00 0.00 0.00 29 1002.8
20260508213048 69 329 9.6 15.6 0.00 0.00 0.00 30 1002.7
20260508212914 69 313 9.6 16.5 0.00 0.00 0.00 31 1002.7
20260508212819 69 310 8.7 16.5 0.00 0.00 0.00 32 1002.8
20260508212742 69 327 7.8 16.5 0.00 0.00 0.00 30 1002.7
20260508212625 69 305 10.4 17.4 0.00 0.00 0.00 32 1002.6
20260508212528 69 315 11.3 18.2 0.00 0.00 0.00 30 1002.6
20260508212411 69 300 10.4 18.2 0.00 0.00 0.00 29 1002.6
20260508212334 69 339 10.4 18.2 0.00 0.00 0.00 29 1002.7
20260508212217 69 332 10.4 18.2 0.00 0.00 0.00 29 1002.7
20260508212107 70 283 9.6 18.2 0.00 0.00 0.00 30 1002.8
20260508212010 70 338 11.3 18.2 0.00 0.00 0.00 28 1002.7
20260508211915 70 285 11.3 18.2 0.00 0.00 0.00 28 1002.6
20260508211820 70 347 11.3 18.2 0.00 0.00 0.00 28 1003.2
20260508211742 70 355 11.3 18.2 0.00 0.00 0.00 29 1002.7
20260508211625 70 303 12.2 17.4 0.00 0.00 0.00 28 1002.8
20260508211513 70 333 10.4 17.4 0.00 0.00 0.00 29 1002.7
20260508211416 70 325 10.4 17.4 0.00 0.00 0.00 31 1002.8
20260508211321 70 314 10.4 17.4 0.00 0.00 0.00 29 1002.8
20260508211207 70 360 9.6 17.4 0.00 0.00 0.00 29 1002.9
20260508211110 70 343 10.4 17.4 0.00 0.00 0.00 31 1002.8
20260508211015 70 341 11.3 17.4 0.00 0.00 0.00 29 1002.8
20260508210925 70 300 11.3 16.5 0.00 0.00 0.00 30 1002.8
20260508210809 70 290 10.4 16.5 0.00 0.00 0.00 30 1002.9
20260508210732 70 296 8.7 16.5 0.00 0.00 0.00 30 1002.6
20260508210609 70 314 10.4 16.5 0.00 0.00 0.00 31 1002.8
20260508210514 70 318 11.3 16.5 0.00 0.00 0.00 29 1003.0
20260508210417 70 315 9.6 16.5 0.00 0.00 0.00 29 1003.0
20260508210343 70 342 7.8 15.6 0.00 0.00 0.00 31 1003.0
20260508210226 70 326 6.1 15.6 0.00 0.00 0.00 33 1003.0
20260508210109 70 311 7.8 17.4 0.00 0.00 0.00 32 1003.0
20260508210012 70 300 8.7 17.4 0.00 0.00 0.00 31 1003.0
20260508205915 70 285 8.7 19.1 0.00 0.00 0.00 30 1003.0
20260508205839 70 275 9.6 19.1 0.00 0.00 0.00 30 1003.1
20260508205720 70 298 8.7 19.1 0.00 0.00 0.00 31 1003.1
20260508205626 70 285 10.4 19.1 0.00 0.00 0.00 30 1003.2
20260508205510 70 306 12.2 19.1 0.00 0.00 0.00 30 1003.2
20260508205412 70 311 11.3 19.1 0.00 0.00 0.00 29 1003.1
20260508205315 70 5 11.3 19.1 0.00 0.00 0.00 30 1003.3
20260508205218 70 11 11.3 19.1 0.00 0.00 0.00 31 1003.3
20260508205141 69 300 11.3 19.1 0.00 0.00 0.00 33 1003.2
20260508205006 69 298 6.1 13.0 0.00 0.00 0.00 33 1003.2
20260508204911 69 304 6.1 13.0 0.00 0.00 0.00 29 1003.3
20260508204813 69 15 8.7 13.0 0.00 0.00 0.00 30 1003.3
20260508204716 69 345 9.6 13.9 0.00 0.00 0.00 31 1003.2
20260508204619 69 294 9.6 13.9 0.00 0.00 0.00 31 1003.2
20260508204522 69 340 7.0 13.9 0.00 0.00 0.00 32 1003.3
20260508204444 68 11 6.1 13.9 0.00 0.00 0.00 31 1003.3
20260508204331 68 13 5.2 13.9 0.00 0.00 0.00 30 1003.4
20260508204206 68 335 7.8 13.9 0.00 0.00 0.00 31 1003.4
20260508204130 68 343 10.4 13.9 0.00 0.00 0.00 29 1003.4
20260508204011 68 338 10.4 13.9 0.00 0.00 0.00 30 1003.5
20260508203915 68 344 8.7 13.0 0.00 0.00 0.00 29 1003.5
20260508203818 68 5 7.8 13.0 0.00 0.00 0.00 30 1003.5
20260508203720 68 323 9.6 13.0 0.00 0.00 0.00 32 1003.5
20260508203606 69 320 11.3 13.0 0.00 0.00 0.00 30 1003.5
20260508203510 69 301 9.6 15.6 0.00 0.00 0.00 32 1003.5
20260508203413 69 298 7.8 17.4 0.00 0.00 0.00 30 1003.5
20260508203336 69 309 7.8 17.4 0.00 0.00 0.00 31 1003.6
20260508203219 69 336 7.0 17.4 0.00 0.00 0.00 30 1003.6
20260508203122 69 344 7.8 17.4 0.00 0.00 0.00 31 1003.6
20260508203010 69 338 7.8 17.4 0.00 0.00 0.00 31 1003.6
20260508202932 69 335 7.0 17.4 0.00 0.00 0.00 31 1003.5
20260508202808 69 296 9.6 17.4 0.00 0.00 0.00 29 1003.4
20260508202731 69 290 12.2 17.4 0.00 0.00 0.00 29 1003.6
20260508202613 69 278 11.3 17.4 0.00 0.00 0.00 30 1003.6
20260508202515 69 293 8.7 14.8 0.00 0.00 0.00 33 1003.6
20260508202418 69 341 8.7 13.0 0.00 0.00 0.00 29 1003.7
20260508202326 69 324 7.0 13.0 0.00 0.00 0.00 30 1003.7
20260508202228 69 9 8.7 14.8 0.00 0.00 0.00 31 1003.6
20260508202111 69 299 10.4 14.8 0.00 0.00 0.00 29 1003.6
20260508202014 70 284 10.4 14.8 0.00 0.00 0.00 30 1003.6
20260508201938 70 282 8.7 14.8 0.00 0.00 0.00 29 1003.7
20260508201819 70 355 6.1 14.8 0.00 0.00 0.00 30 1003.8
20260508201744 70 298 7.0 14.8 0.00 0.00 0.00 32 1003.8
20260508201630 70 328 9.6 16.5 0.00 0.00 0.00 28 1003.8
20260508201506 70 342 11.3 16.5 0.00 0.00 0.00 30 1003.9
20260508201409 70 329 8.7 16.5 0.00 0.00 0.00 29 1003.8
20260508201311 70 321 9.6 16.5 0.00 0.00 0.00 34 1003.9
20260508201215 69 360 9.6 20.9 0.00 0.00 0.00 30 1003.8
20260508201117 69 280 7.0 20.9 0.00 0.00 0.00 32 1003.8
20260508201024 69 360 8.7 20.9 0.00 0.00 0.00 32 1003.9
20260508200930 69 344 9.6 20.9 0.00 0.00 0.00 30 1003.9
20260508200805 69 303 8.7 20.9 0.00 0.00 0.00 29 1003.8
20260508200729 69 355 10.4 20.9 0.00 0.00 0.00 33 1003.8
20260508200612 69 360 13.0 20.9 0.00 0.00 0.00 30 1004.0
20260508200534 69 306 14.8 20.9 0.00 0.00 0.00 33 1003.8
20260508200418 69 290 12.2 20.9 0.00 0.00 0.00 33 1003.9
20260508200325 69 277 9.6 16.5 0.00 0.00 0.00 34 1003.8
20260508200227 69 300 9.6 17.4 0.00 0.00 0.00 32 1003.8
20260508200108 69 294 9.6 17.4 0.00 0.00 0.00 31 1003.9
20260508200013 69 290 11.3 17.4 0.00 0.00 0.00 29 1003.9
20260508195936 69 262 12.2 17.4 0.00 0.00 0.00 31 1004.0
20260508195839 69 289 9.6 17.4 0.00 0.00 0.00 32 1004.0
20260508195740 69 300 9.6 17.4 0.00 0.00 0.00 32 1004.0
20260508195624 69 290 10.4 17.4 0.00 0.00 0.00 32 1004.0
20260508195530 69 290 10.4 17.4 0.00 0.00 0.00 29 1004.1
20260508195406 69 331 7.8 14.8 0.00 0.00 0.00 33 1004.0
20260508195310 69 330 7.0 14.8 0.00 0.00 0.00 32 1004.1
20260508195211 69 293 8.7 14.8 0.00 0.00 0.00 33 1004.0
20260508195115 69 338 9.6 14.8 0.00 0.00 0.00 30 1004.0